REU974 LFPG-FMEE

Flight info

Callsign REU974
Flight time N/A
Altitude 33000
Route LANVI6B/26R LANVI DCT DEVDI DCT RIPUS DCT RESIA DCT LAPAB DCT LABIN DCT ELGUS DCT AIOSA DCT NOSTO DCT SALUN N705 BOPIX N710 TAKRI P751 LXR M999 DASPA/N0494F350 M999 JDW G650 RASKA/N0499F340 G650 ULONI UG650 KONET/N0495F350 DCT XADOX DCT DWA UN304 APKAK/N0491F360 UN304 DENLI/N0489F370 UN304 UVENA UVENA2R
Aircraft B77W/H-SDE1E2E3FGHIJ2J3J4J5M1RWXY/LB1D1

Departure

Time N/A
Airport Charles de Gaulle International Airport (LFPG)

Arrival

Time 2026-05-04 06:22
Airport Roland Garros Airport (FMEE)
Time Latitude Longitude Altitude Speed Heading
2026-05-03 20:15 47.97016 6.85582 31031 ft 498 kts 120°
2026-05-03 20:15 47.93960 6.94840 31025 ft 496 kts 120°
2026-05-03 20:16 47.90947 7.03933 31028 ft 495 kts 120°
2026-05-03 20:16 47.87889 7.13130 31034 ft 495 kts 120°
2026-05-03 20:17 47.84838 7.22271 31016 ft 493 kts 120°
2026-05-03 20:17 47.81778 7.31416 31033 ft 492 kts 120°
2026-05-03 20:18 47.78738 7.40463 31047 ft 492 kts 120°
2026-05-03 20:18 47.75671 7.49560 31043 ft 492 kts 120°
2026-05-03 20:19 47.72298 7.58294 31040 ft 488 kts 129°
2026-05-03 20:19 47.68227 7.66364 31053 ft 488 kts 130°
2026-05-03 20:20 47.64151 7.74438 31054 ft 489 kts 130°
2026-05-03 20:20 47.60154 7.82426 31053 ft 489 kts 130°
2026-05-03 20:20 47.58148 7.86440 31174 ft 492 kts 130°
2026-05-03 20:21 47.56113 7.90509 31510 ft 490 kts 130°
2026-05-03 20:21 47.54085 7.94560 31882 ft 488 kts 130°
2026-05-03 20:21 47.52061 7.98597 32212 ft 487 kts 130°
2026-05-03 20:21 47.50036 8.02626 32441 ft 488 kts 130°
2026-05-03 20:22 47.48034 8.06602 32693 ft 488 kts 130°
2026-05-03 20:22 47.46002 8.10632 32957 ft 488 kts 130°
2026-05-03 20:22 47.43962 8.14671 32996 ft 490 kts 130°
2026-05-03 20:23 47.39883 8.22732 33061 ft 489 kts 130°
2026-05-03 20:23 47.35815 8.30750 33051 ft 487 kts 130°
2026-05-03 20:24 47.31754 8.38728 33055 ft 485 kts 130°
2026-05-03 20:24 47.27696 8.46681 33063 ft 485 kts 130°
2026-05-03 20:25 47.23651 8.54659 33080 ft 487 kts 129°
2026-05-03 20:25 47.19687 8.62693 33075 ft 489 kts 129°
2026-05-03 20:26 47.15681 8.70823 33057 ft 490 kts 129°
2026-05-03 20:26 47.11662 8.78927 33070 ft 491 kts 129°
2026-05-03 20:27 47.07634 8.87006 33082 ft 491 kts 129°
2026-05-03 20:27 47.03581 8.95105 33064 ft 492 kts 129°
2026-05-03 20:28 46.99530 9.03178 33074 ft 491 kts 129°
2026-05-03 20:28 46.95558 9.11075 33068 ft 491 kts 129°
2026-05-03 20:29 46.91518 9.19084 33073 ft 491 kts 129°
2026-05-03 20:29 46.87455 9.27115 33065 ft 492 kts 129°
2026-05-03 20:30 46.83377 9.35149 33088 ft 491 kts 129°
2026-05-03 20:30 46.79298 9.43162 33079 ft 491 kts 129°
2026-05-03 20:31 46.75236 9.51122 33096 ft 491 kts 129°
2026-05-03 20:31 46.71150 9.59105 33138 ft 491 kts 130°
2026-05-03 20:32 46.67060 9.67075 33161 ft 491 kts 130°
2026-05-03 20:32 46.62973 9.75010 33200 ft 488 kts 130°
2026-05-03 20:33 46.58884 9.82932 33196 ft 491 kts 130°
2026-05-03 20:33 46.54767 9.90887 33188 ft 492 kts 130°
2026-05-03 20:34 46.50638 9.98842 33185 ft 492 kts 130°
2026-05-03 20:34 46.46528 10.06781 33171 ft 492 kts 129°
2026-05-03 20:35 46.42630 10.14895 33158 ft 494 kts 127°
2026-05-03 20:35 46.38744 10.23189 33155 ft 494 kts 127°
2026-05-03 20:36 46.34872 10.31354 33174 ft 495 kts 128°
2026-05-03 20:36 46.30962 10.39504 33177 ft 496 kts 128°
2026-05-03 20:37 46.27007 10.47698 33180 ft 496 kts 127°
2026-05-03 20:37 46.23055 10.55870 33187 ft 495 kts 127°
2026-05-03 20:38 46.19107 10.64016 33215 ft 495 kts 127°
2026-05-03 20:38 46.15148 10.72156 33199 ft 496 kts 127°
2026-05-03 20:39 46.11183 10.80284 33198 ft 495 kts 127°
2026-05-03 20:39 46.07250 10.88332 33187 ft 495 kts 127°
2026-05-03 20:40 46.03279 10.96433 33212 ft 496 kts 127°
2026-05-03 20:40 45.99286 11.04547 33204 ft 498 kts 127°
2026-05-03 20:41 45.95273 11.12679 33191 ft 499 kts 127°
2026-05-03 20:41 45.91248 11.20818 33176 ft 500 kts 127°
2026-05-03 20:42 45.87204 11.28969 33165 ft 501 kts 127°
2026-05-03 20:42 45.83142 11.37133 33147 ft 502 kts 127°
2026-05-03 20:43 45.79104 11.45227 33139 ft 502 kts 127°
2026-05-03 20:43 45.75034 11.53362 33125 ft 502 kts 127°
2026-05-03 20:44 45.70961 11.61479 33107 ft 501 kts 128°
2026-05-03 20:44 45.66895 11.69558 33110 ft 500 kts 128°
2026-05-03 20:45 45.62826 11.77619 33098 ft 499 kts 128°
2026-05-03 20:45 45.58761 11.85652 33095 ft 500 kts 127°
2026-05-03 20:46 45.54696 11.93666 33103 ft 502 kts 127°
2026-05-03 20:46 45.50635 12.01776 33108 ft 503 kts 126°
2026-05-03 20:47 45.46703 12.10053 33102 ft 505 kts 125°
2026-05-03 20:47 45.42779 12.18348 33096 ft 506 kts 125°
2026-05-03 20:48 45.38810 12.26655 33079 ft 508 kts 125°
2026-05-03 20:48 45.34814 12.34954 33078 ft 509 kts 125°
2026-05-03 20:49 45.30808 12.43246 33078 ft 509 kts 125°
2026-05-03 20:49 45.26868 12.51378 33071 ft 509 kts 125°
2026-05-03 20:50 45.22850 12.59654 33086 ft 509 kts 125°
2026-05-03 20:50 45.18823 12.67923 33084 ft 509 kts 125°
2026-05-03 20:51 45.14784 12.76194 33090 ft 509 kts 125°
2026-05-03 20:51 45.10763 12.84404 33098 ft 509 kts 124°
2026-05-03 20:52 45.06723 12.92629 33096 ft 509 kts 125°
2026-05-03 20:52 45.02675 13.00850 33084 ft 508 kts 125°
2026-05-03 20:53 44.98533 13.08938 33097 ft 508 kts 130°
2026-05-03 20:53 44.93619 13.16000 33104 ft 508 kts 137°
2026-05-03 20:54 44.89286 13.21713 33106 ft 509 kts 137°
2026-05-03 20:54 44.80717 13.33128 33101 ft 510 kts 136°
2026-05-03 20:55 44.76439 13.38856 33103 ft 510 kts 136°
2026-05-03 20:55 44.70439 13.46872 33106 ft 512 kts 136°
2026-05-03 20:56 44.66102 13.52647 33106 ft 513 kts 136°
2026-05-03 20:56 44.60943 13.59499 33104 ft 513 kts 136°
2026-05-03 20:57 44.55748 13.66379 33099 ft 514 kts 136°
2026-05-03 20:57 44.50545 13.73254 33104 ft 515 kts 136°
2026-05-03 20:58 44.45329 13.80127 33105 ft 516 kts 136°
2026-05-03 20:58 44.40092 13.87011 33102 ft 516 kts 136°
2026-05-03 20:59 44.34842 13.93893 33103 ft 516 kts 136°
2026-05-03 20:59 44.29590 14.00761 33099 ft 518 kts 136°
2026-05-03 21:00 44.25255 14.06416 33109 ft 518 kts 136°
2026-05-03 21:00 44.19082 14.14448 33107 ft 520 kts 136°
2026-05-03 21:01 44.13787 14.21320 33107 ft 520 kts 136°
2026-05-03 21:01 44.08481 14.28187 33101 ft 521 kts 136°
2026-05-03 21:02 44.03202 14.35002 33100 ft 522 kts 136°
2026-05-03 21:02 43.97873 14.41864 33106 ft 522 kts 136°
2026-05-03 21:03 43.92541 14.48712 33103 ft 522 kts 136°
2026-05-03 21:03 43.87204 14.55550 33104 ft 522 kts 136°
2026-05-03 21:04 43.81873 14.62362 33103 ft 522 kts 136°
2026-05-03 21:04 43.76521 14.69184 33102 ft 521 kts 136°
2026-05-03 21:05 43.71206 14.75941 33102 ft 521 kts 136°
2026-05-03 21:05 43.65867 14.82714 33103 ft 521 kts 136°
2026-05-03 21:06 43.60528 14.89469 33108 ft 521 kts 136°
2026-05-03 21:06 43.55171 14.96239 33117 ft 520 kts 135°
2026-05-03 21:07 43.50144 15.03391 33111 ft 519 kts 131°
2026-05-03 21:07 43.45220 15.10651 33110 ft 518 kts 131°
2026-05-03 21:08 43.40316 15.17840 33100 ft 518 kts 131°
2026-05-03 21:08 43.35365 15.25046 33103 ft 518 kts 131°
2026-05-03 21:09 43.30401 15.32239 33125 ft 519 kts 132°
2026-05-03 21:09 43.25422 15.39435 33118 ft 519 kts 132°
2026-05-03 21:10 43.20448 15.46608 33110 ft 518 kts 132°
2026-05-03 21:10 43.15472 15.53767 33104 ft 518 kts 132°
2026-05-03 21:11 43.10595 15.60766 33110 ft 518 kts 132°
2026-05-03 21:11 43.05607 15.67907 33110 ft 519 kts 132°
2026-05-03 21:12 43.00617 15.75033 33112 ft 518 kts 132°
2026-05-03 21:12 42.95617 15.82155 33110 ft 518 kts 132°
2026-05-03 21:13 42.90623 15.89250 33112 ft 518 kts 132°
2026-05-03 21:13 42.85645 15.96306 33112 ft 519 kts 132°
2026-05-03 21:14 42.80627 16.03400 33126 ft 520 kts 131°
2026-05-03 21:14 42.75606 16.10480 33117 ft 521 kts 131°
2026-05-03 21:15 42.70564 16.17573 33111 ft 521 kts 132°
2026-05-03 21:15 42.65514 16.24661 33108 ft 521 kts 132°
2026-05-03 21:16 42.60463 16.31730 33115 ft 522 kts 132°
2026-05-03 21:16 42.55394 16.38807 33123 ft 522 kts 131°
2026-05-03 21:17 42.51181 16.44677 33114 ft 523 kts 131°
2026-05-03 21:17 42.45282 16.52874 33113 ft 523 kts 132°
2026-05-03 21:18 42.40198 16.59921 33099 ft 522 kts 132°
2026-05-03 21:18 42.35109 16.66956 33117 ft 522 kts 132°
2026-05-03 21:19 42.30021 16.73974 33114 ft 523 kts 131°
2026-05-03 21:19 42.24917 16.80996 33119 ft 524 kts 131°
2026-05-03 21:20 42.19796 16.88025 33117 ft 525 kts 131°
2026-05-03 21:20 42.14669 16.95044 33110 ft 525 kts 132°
2026-05-03 21:21 42.09565 17.02015 33119 ft 526 kts 132°
2026-05-03 21:21 42.04414 17.09033 33123 ft 528 kts 131°
2026-05-03 21:22 41.99241 17.16068 33121 ft 528 kts 131°
2026-05-03 21:22 41.94026 17.23037 33116 ft 530 kts 135°
2026-05-03 21:23 41.88134 17.29019 33114 ft 533 kts 146°
2026-05-03 21:23 41.81850 17.34293 33121 ft 534 kts 146°
2026-05-03 21:24 41.75555 17.39612 33126 ft 534 kts 146°
2026-05-03 21:24 41.69319 17.44933 33124 ft 534 kts 145°
2026-05-03 21:25 41.63257 17.50117 33118 ft 535 kts 146°
2026-05-03 21:25 41.56980 17.55472 33127 ft 535 kts 146°
2026-05-03 21:26 41.50699 17.60813 33126 ft 535 kts 146°
2026-05-03 21:26 41.44480 17.66087 33128 ft 536 kts 146°
2026-05-03 21:27 41.38188 17.71409 33128 ft 536 kts 146°
2026-05-03 21:27 41.31929 17.76692 33146 ft 536 kts 146°
2026-05-03 21:28 41.25631 17.81997 33130 ft 534 kts 146°
2026-05-03 21:28 41.19349 17.87275 33106 ft 533 kts 146°
2026-05-03 21:29 41.13079 17.92532 33137 ft 533 kts 146°
2026-05-03 21:29 41.06806 17.97779 33133 ft 533 kts 146°
2026-05-03 21:30 41.00560 18.02991 33135 ft 534 kts 146°
2026-05-03 21:30 40.94265 18.08233 33133 ft 535 kts 146°
2026-05-03 21:31 40.87997 18.13440 33135 ft 536 kts 146°
2026-05-03 21:31 40.81670 18.18684 33135 ft 537 kts 146°
2026-05-03 21:32 40.75328 18.23928 33133 ft 538 kts 146°
2026-05-03 21:32 40.68987 18.29160 33122 ft 538 kts 146°
2026-05-03 21:33 40.62630 18.34393 33134 ft 539 kts 146°
2026-05-03 21:33 40.56267 18.39619 33134 ft 539 kts 146°
2026-05-03 21:34 40.49926 18.44814 33155 ft 539 kts 146°
2026-05-03 21:34 40.43579 18.50004 33137 ft 538 kts 146°
2026-05-03 21:35 40.37228 18.55184 33127 ft 537 kts 146°
2026-05-03 21:35 40.30883 18.60349 33133 ft 536 kts 147°
2026-05-03 21:36 40.24543 18.65498 33133 ft 535 kts 147°
2026-05-03 21:36 40.18205 18.70634 33134 ft 536 kts 147°
2026-05-03 21:37 40.11890 18.75740 33143 ft 537 kts 147°
2026-05-03 21:37 40.05522 18.80878 33147 ft 538 kts 147°
2026-05-03 21:38 39.99143 18.86012 33144 ft 538 kts 147°
2026-05-03 21:38 39.92758 18.91142 33144 ft 539 kts 147°
2026-05-03 21:39 39.86368 18.96265 33154 ft 540 kts 147°
2026-05-03 21:39 39.80091 19.01517 33137 ft 539 kts 141°
2026-05-03 21:40 39.74226 19.07597 33142 ft 538 kts 139°
2026-05-03 21:40 39.68384 19.13719 33163 ft 540 kts 139°
2026-05-03 21:41 39.62510 19.19806 33137 ft 540 kts 139°
2026-05-03 21:41 39.56609 19.25868 33124 ft 540 kts 140°
2026-05-03 21:42 39.50726 19.31891 33126 ft 539 kts 140°
2026-05-03 21:42 39.45838 19.36887 33118 ft 539 kts 140°
2026-05-03 21:43 39.38991 19.43875 33123 ft 539 kts 140°
2026-05-03 21:43 39.33098 19.49876 33128 ft 540 kts 140°
2026-05-03 21:44 39.28243 19.54810 33126 ft 540 kts 140°
2026-05-03 21:44 39.22340 19.60796 33127 ft 540 kts 140°
2026-05-03 21:45 39.16434 19.66773 33130 ft 540 kts 140°
2026-05-03 21:45 39.10560 19.72704 33137 ft 540 kts 140°
2026-05-03 21:46 39.04635 19.78673 33134 ft 540 kts 140°
2026-05-03 21:46 38.98700 19.84640 33142 ft 542 kts 140°
2026-05-03 21:47 38.92764 19.90594 33147 ft 541 kts 140°
2026-05-03 21:47 38.86811 19.96552 33144 ft 541 kts 140°
2026-05-03 21:48 38.80912 20.02443 33148 ft 540 kts 140°
2026-05-03 21:48 38.74979 20.08355 33157 ft 540 kts 140°
2026-05-03 21:49 38.69041 20.14261 33196 ft 540 kts 140°
2026-05-03 21:49 38.63093 20.20164 33161 ft 542 kts 140°
2026-05-03 21:50 38.57120 20.26078 33165 ft 543 kts 140°
2026-05-03 21:50 38.51138 20.31988 33161 ft 544 kts 140°
2026-05-03 21:51 38.45148 20.37893 33163 ft 544 kts 140°
2026-05-03 21:51 38.39144 20.43799 33162 ft 545 kts 141°
2026-05-03 21:52 38.33188 20.49646 33195 ft 546 kts 140°
2026-05-03 21:52 38.27159 20.55556 33176 ft 547 kts 140°
2026-05-03 21:53 38.21125 20.61448 33175 ft 545 kts 140°
2026-05-03 21:53 38.15099 20.67329 33160 ft 546 kts 141°
2026-05-03 21:54 38.09065 20.73197 33153 ft 546 kts 141°
2026-05-03 21:54 38.03027 20.79060 33177 ft 547 kts 141°
2026-05-03 21:55 37.97011 20.84892 33187 ft 549 kts 141°
2026-05-03 21:55 37.90926 20.90778 33174 ft 550 kts 141°
2026-05-03 21:56 37.84849 20.96642 33166 ft 550 kts 141°
2026-05-03 21:56 37.78758 21.02506 33173 ft 550 kts 141°
2026-05-03 21:57 37.72671 21.08355 33171 ft 550 kts 141°
2026-05-03 21:57 37.66585 21.14190 33212 ft 549 kts 141°
2026-05-03 21:58 37.60479 21.20033 33150 ft 550 kts 142°
2026-05-03 21:58 37.54422 21.25817 33168 ft 550 kts 142°
2026-05-03 21:59 37.48315 21.31635 33173 ft 550 kts 142°
2026-05-03 21:59 37.42210 21.37440 33168 ft 550 kts 142°
2026-05-03 22:00 37.36089 21.43248 33174 ft 551 kts 142°
2026-05-03 22:00 37.29995 21.49018 33174 ft 551 kts 142°
2026-05-03 22:01 37.23829 21.54844 33191 ft 552 kts 142°
2026-05-03 22:01 37.17673 21.60648 33190 ft 553 kts 142°
2026-05-03 22:02 37.11509 21.66448 33183 ft 554 kts 142°
2026-05-03 22:02 37.05503 21.72087 33167 ft 554 kts 143°
2026-05-03 22:03 36.99389 21.77816 33178 ft 555 kts 143°
2026-05-03 22:03 36.93193 21.83611 33192 ft 556 kts 143°
2026-05-03 22:04 36.86996 21.89394 33179 ft 555 kts 143°
2026-05-03 22:04 36.80804 21.95159 33177 ft 555 kts 143°
2026-05-03 22:05 36.74624 22.00903 33161 ft 555 kts 143°
2026-05-03 22:05 36.68468 22.06613 33173 ft 555 kts 143°
2026-05-03 22:06 36.62260 22.12359 33174 ft 556 kts 143°
2026-05-03 22:06 36.56022 22.18120 33162 ft 558 kts 143°
2026-05-03 22:07 36.49773 22.23880 33144 ft 559 kts 143°
2026-05-03 22:07 36.43560 22.29594 33175 ft 559 kts 143°
2026-05-03 22:08 36.37295 22.35345 33171 ft 560 kts 143°
2026-05-03 22:08 36.31039 22.41077 33168 ft 560 kts 144°
2026-05-03 22:09 36.24764 22.46813 33200 ft 560 kts 144°
2026-05-03 22:10 36.15348 22.55399 33169 ft 559 kts 144°
2026-05-03 22:10 36.09090 22.61091 33162 ft 558 kts 144°
2026-05-03 22:11 36.02864 22.66743 33163 ft 558 kts 144°
2026-05-03 22:11 35.96612 22.72407 33158 ft 557 kts 144°
2026-05-03 22:12 35.90462 22.77967 33162 ft 557 kts 144°
2026-05-03 22:12 35.84073 22.83731 33162 ft 559 kts 144°
2026-05-03 22:13 35.77782 22.89396 33158 ft 560 kts 144°
2026-05-03 22:13 35.71487 22.95054 33155 ft 560 kts 144°
2026-05-03 22:14 35.65185 23.00706 33138 ft 560 kts 145°
2026-05-03 22:14 35.58926 23.06308 33166 ft 560 kts 145°
2026-05-03 22:15 35.52696 23.11874 33175 ft 561 kts 145°
2026-05-03 22:15 35.46373 23.17512 33152 ft 561 kts 145°
2026-05-03 22:16 35.40053 23.23135 33148 ft 561 kts 145°
2026-05-03 22:16 35.33817 23.28673 33153 ft 560 kts 145°
2026-05-03 22:17 35.27500 23.34271 33147 ft 560 kts 145°
2026-05-03 22:17 35.21181 23.39861 33132 ft 560 kts 145°
2026-05-03 22:18 35.14897 23.45411 33154 ft 561 kts 146°
2026-05-03 22:18 35.08586 23.50970 33118 ft 561 kts 146°
2026-05-03 22:19 35.02256 23.56535 33142 ft 561 kts 146°
2026-05-03 22:19 34.95920 23.62096 33127 ft 561 kts 146°
2026-05-03 22:20 34.89582 23.67648 33115 ft 561 kts 146°
2026-05-03 22:20 34.83268 23.73169 33135 ft 561 kts 146°
2026-05-03 22:21 34.76922 23.78707 33108 ft 560 kts 147°
2026-05-03 22:21 34.70592 23.84220 33126 ft 559 kts 147°
2026-05-03 22:22 34.64270 23.89715 33113 ft 558 kts 147°
2026-05-03 22:22 34.57938 23.95209 33108 ft 558 kts 147°
2026-05-03 22:23 34.51614 24.00685 33081 ft 557 kts 148°
2026-05-03 22:23 34.45356 24.06094 33111 ft 556 kts 148°
2026-05-03 22:24 34.39052 24.11531 33123 ft 556 kts 148°
2026-05-03 22:24 34.32741 24.16965 33118 ft 556 kts 148°
2026-05-03 22:25 34.26434 24.22386 33117 ft 556 kts 148°
2026-05-03 22:25 34.20131 24.27794 33091 ft 554 kts 149°
2026-05-03 22:26 34.13877 24.33149 33112 ft 554 kts 149°
2026-05-03 22:26 34.07587 24.38526 33119 ft 554 kts 149°
2026-05-03 22:27 34.01286 24.43906 33116 ft 555 kts 149°
2026-05-03 22:27 33.95317 24.49863 33061 ft 559 kts 142°
2026-05-03 22:28 33.89560 24.56156 33109 ft 558 kts 142°
2026-05-03 22:28 33.83790 24.62426 33114 ft 559 kts 142°
2026-05-03 22:29 33.77988 24.68661 33109 ft 560 kts 142°
2026-05-03 22:29 33.72200 24.74846 33107 ft 560 kts 142°
2026-05-03 22:30 33.66355 24.81082 33106 ft 561 kts 142°
2026-05-03 22:30 33.61510 24.86245 33082 ft 560 kts 142°
2026-05-03 22:31 33.55679 24.92452 33098 ft 560 kts 142°
2026-05-03 22:31 33.49844 24.98651 33112 ft 560 kts 142°
2026-05-03 22:32 33.44002 25.04845 33112 ft 559 kts 142°
2026-05-03 22:32 33.38175 25.11012 33095 ft 559 kts 142°
2026-05-03 22:33 33.32344 25.17170 33094 ft 558 kts 143°
2026-05-03 22:33 33.26556 25.23274 33109 ft 558 kts 143°
2026-05-03 22:34 33.20732 25.29402 33112 ft 557 kts 143°
2026-05-03 22:34 33.14917 25.35510 33110 ft 557 kts 143°
2026-05-03 22:35 33.09096 25.41613 33096 ft 557 kts 143°
2026-05-03 22:35 33.03270 25.47711 33096 ft 556 kts 143°
2026-05-03 22:36 32.97457 25.53785 33089 ft 555 kts 143°
2026-05-03 22:36 32.91644 25.59846 33088 ft 555 kts 143°
2026-05-03 22:37 32.85826 25.65901 33089 ft 555 kts 144°
2026-05-03 22:37 32.80026 25.71927 33094 ft 554 kts 144°
2026-05-03 22:38 32.74257 25.77911 33088 ft 553 kts 144°
2026-05-03 22:38 32.68463 25.83910 33060 ft 552 kts 144°
2026-05-03 22:39 32.62712 25.89855 33086 ft 551 kts 144°
2026-05-03 22:39 32.56939 25.95809 33100 ft 550 kts 145°
2026-05-03 22:40 32.51161 26.01759 33085 ft 549 kts 145°
2026-05-03 22:40 32.45388 26.07693 33084 ft 548 kts 145°
2026-05-03 22:41 32.39621 26.13611 33092 ft 548 kts 145°
2026-05-03 22:41 32.33911 26.19461 33090 ft 546 kts 145°
2026-05-03 22:42 32.28171 26.25331 33090 ft 545 kts 145°
2026-05-03 22:42 32.22464 26.31159 33096 ft 543 kts 146°
2026-05-03 22:43 32.16752 26.36978 33096 ft 542 kts 146°
2026-05-03 22:43 32.11041 26.42786 33100 ft 541 kts 146°
2026-05-03 22:44 32.05335 26.48581 33063 ft 540 kts 146°
2026-05-03 22:44 31.99649 26.54346 33102 ft 539 kts 146°
2026-05-03 22:45 31.94002 26.60061 33113 ft 538 kts 147°
2026-05-03 22:45 31.88315 26.65807 33096 ft 538 kts 147°
2026-05-03 22:46 31.82635 26.71537 33118 ft 538 kts 147°
2026-05-03 22:46 31.76950 26.77262 33107 ft 537 kts 147°
2026-05-03 22:47 31.71271 26.82972 33110 ft 535 kts 147°
2026-05-03 22:47 31.65603 26.88661 33131 ft 535 kts 147°
2026-05-03 22:48 31.60030 26.94245 33113 ft 535 kts 147°
2026-05-03 22:48 31.54451 26.99826 33113 ft 534 kts 147°
2026-05-03 22:49 31.48793 27.05477 33139 ft 534 kts 147°
2026-05-03 22:49 31.43119 27.11136 33069 ft 535 kts 147°
2026-05-03 22:50 31.37452 27.16780 33116 ft 534 kts 147°
2026-05-03 22:50 31.31625 27.22041 33120 ft 523 kts 156°
2026-05-03 22:51 31.25333 27.25950 33135 ft 510 kts 165°
2026-05-03 22:51 31.18853 27.29368 33132 ft 512 kts 165°
2026-05-03 22:52 31.12550 27.32761 33078 ft 513 kts 165°
2026-05-03 22:52 31.06143 27.36244 33144 ft 512 kts 165°
2026-05-03 22:53 30.99684 27.39747 33153 ft 513 kts 165°
2026-05-03 22:53 30.93274 27.43509 33128 ft 522 kts 158°
2026-05-03 22:54 30.87326 27.48559 33148 ft 533 kts 150°
2026-05-03 22:54 30.81581 27.54002 33116 ft 533 kts 150°
2026-05-03 22:55 30.75818 27.59411 33132 ft 532 kts 150°
2026-05-03 22:55 30.70069 27.64738 33143 ft 531 kts 150°
2026-05-03 22:56 30.64280 27.70075 33143 ft 532 kts 150°
2026-05-03 22:56 30.58482 27.75415 33137 ft 532 kts 150°
2026-05-03 22:57 30.52696 27.80741 33145 ft 532 kts 150°
2026-05-03 22:57 30.46910 27.86060 33134 ft 531 kts 151°
2026-05-03 22:58 30.41114 27.91380 33136 ft 531 kts 151°
2026-05-03 22:58 30.35351 27.96662 33144 ft 531 kts 151°
2026-05-03 22:59 30.29547 28.01968 33136 ft 532 kts 151°
2026-05-03 22:59 30.23739 28.07272 33118 ft 532 kts 151°
2026-05-03 23:00 30.17931 28.12570 33137 ft 531 kts 151°
2026-05-03 23:00 30.12112 28.17869 33140 ft 531 kts 151°
2026-05-03 23:01 30.06307 28.23147 33147 ft 531 kts 151°
2026-05-03 23:01 30.00501 28.28419 33141 ft 531 kts 151°
2026-05-03 23:02 29.94683 28.33694 33141 ft 531 kts 151°
2026-05-03 23:02 29.88897 28.38979 33133 ft 534 kts 148°
2026-05-03 23:03 29.83651 28.45108 33139 ft 548 kts 136°
2026-05-03 23:03 29.79030 28.52144 33150 ft 551 kts 134°
2026-05-03 23:04 29.74407 28.59187 33140 ft 551 kts 135°
2026-05-03 23:04 29.69724 28.66176 33137 ft 551 kts 135°
2026-05-03 23:05 29.65033 28.73152 33118 ft 550 kts 135°
2026-05-03 23:05 29.60352 28.80112 33122 ft 550 kts 135°
2026-05-03 23:06 29.55705 28.87012 33136 ft 549 kts 135°
2026-05-03 23:06 29.51024 28.93954 33121 ft 549 kts 135°
2026-05-03 23:07 29.46352 29.00873 33109 ft 547 kts 135°
2026-05-03 23:07 29.41469 29.07467 33129 ft 536 kts 143°
2026-05-03 23:08 29.35832 29.12913 33129 ft 523 kts 153°
2026-05-03 23:08 29.29957 29.17865 33129 ft 525 kts 153°
2026-05-03 23:09 29.24131 29.22865 33131 ft 527 kts 152°
2026-05-03 23:09 29.18275 29.27931 33132 ft 528 kts 152°
2026-05-03 23:10 29.12496 29.32917 33119 ft 526 kts 152°
2026-05-03 23:10 29.06689 29.37812 33136 ft 524 kts 153°
2026-05-03 23:11 29.00780 29.42695 33129 ft 524 kts 153°
2026-05-03 23:11 28.94869 29.47576 33130 ft 523 kts 153°
2026-05-03 23:12 28.88984 29.52451 33136 ft 523 kts 153°
2026-05-03 23:12 28.83097 29.57328 33114 ft 522 kts 153°
2026-05-03 23:13 28.77297 29.62130 33127 ft 520 kts 153°
2026-05-03 23:13 28.71435 29.66972 33134 ft 520 kts 153°
2026-05-03 23:14 28.65579 29.71801 33135 ft 520 kts 153°
2026-05-03 23:14 28.59748 29.76602 33136 ft 520 kts 153°
2026-05-03 23:15 28.54015 29.81317 33133 ft 520 kts 153°
2026-05-03 23:15 28.48332 29.85986 33139 ft 518 kts 152°
2026-05-03 23:16 28.42489 29.90778 33137 ft 518 kts 152°
2026-05-03 23:16 28.37636 29.94753 33133 ft 517 kts 152°
2026-05-03 23:17 28.31793 29.99534 33138 ft 517 kts 152°
2026-05-03 23:17 28.25948 30.04308 33135 ft 517 kts 153°
2026-05-03 23:18 28.20113 30.09069 33095 ft 517 kts 152°
2026-05-03 23:18 28.14417 30.13712 33119 ft 515 kts 152°
2026-05-03 23:19 28.08598 30.18447 33135 ft 514 kts 152°
2026-05-03 23:19 28.02777 30.23176 33131 ft 514 kts 152°
2026-05-03 23:20 27.96968 30.27889 33136 ft 514 kts 152°
2026-05-03 23:20 27.91193 30.32568 33132 ft 514 kts 152°
2026-05-03 23:21 27.85378 30.37274 33127 ft 513 kts 153°
2026-05-03 23:21 27.79562 30.41975 33129 ft 514 kts 153°
2026-05-03 23:22 27.70959 30.48916 33132 ft 514 kts 153°
2026-05-03 23:22 27.65146 30.53598 33130 ft 514 kts 153°
2026-05-03 23:23 27.59319 30.58286 33119 ft 514 kts 153°
2026-05-03 23:23 27.53526 30.62940 33119 ft 513 kts 153°
2026-05-03 23:24 27.47709 30.67606 33128 ft 514 kts 153°
2026-05-03 23:24 27.41865 30.72288 33131 ft 515 kts 153°
2026-05-03 23:25 27.36018 30.76967 33131 ft 516 kts 153°
2026-05-03 23:25 27.30162 30.81647 33126 ft 516 kts 153°
2026-05-03 23:26 27.24310 30.86319 33110 ft 516 kts 153°
2026-05-03 23:26 27.18449 30.90991 33128 ft 516 kts 153°
2026-05-03 23:27 27.12632 30.95622 33128 ft 516 kts 153°
2026-05-03 23:27 27.06766 31.00291 33134 ft 517 kts 152°
2026-05-03 23:28 27.01285 31.05655 33135 ft 530 kts 141°
2026-05-03 23:28 26.96518 31.12080 33132 ft 536 kts 135°
2026-05-03 23:29 26.91870 31.18615 33127 ft 535 kts 135°
2026-05-03 23:29 26.87199 31.25107 33100 ft 535 kts 136°
2026-05-03 23:30 26.82542 31.31511 33092 ft 534 kts 136°
2026-05-03 23:30 26.77848 31.37942 33094 ft 533 kts 136°
2026-05-03 23:31 26.73147 31.44375 33087 ft 533 kts 136°
2026-05-03 23:31 26.68454 31.50792 33087 ft 532 kts 136°
2026-05-03 23:32 26.63764 31.57201 33070 ft 532 kts 137°
2026-05-03 23:32 26.59111 31.63547 33068 ft 531 kts 137°
2026-05-03 23:33 26.54424 31.69930 33072 ft 531 kts 137°
2026-05-03 23:33 26.49732 31.76312 33030 ft 531 kts 137°
2026-05-03 23:34 26.45042 31.82681 33039 ft 530 kts 137°
2026-05-03 23:34 26.40337 31.89059 33257 ft 533 kts 137°
2026-05-03 23:35 26.37987 31.92244 33611 ft 532 kts 137°
2026-05-03 23:35 26.35637 31.95428 33974 ft 530 kts 137°
2026-05-03 23:35 26.33323 31.98562 34279 ft 529 kts 138°
2026-05-03 23:35 26.30954 32.01767 34591 ft 528 kts 138°
2026-05-03 23:36 26.28650 32.04879 34825 ft 527 kts 138°
2026-05-03 23:36 26.26311 32.08035 34936 ft 529 kts 138°
2026-05-03 23:36 26.21622 32.14355 35008 ft 528 kts 138°
2026-05-03 23:37 26.16957 32.20640 35003 ft 526 kts 138°
2026-05-03 23:37 26.12298 32.26907 34953 ft 525 kts 138°
2026-05-03 23:38 26.07650 32.33151 34993 ft 522 kts 138°
2026-05-03 23:38 26.03013 32.39368 34986 ft 522 kts 138°
2026-05-03 23:39 25.98376 32.45576 34977 ft 522 kts 138°
2026-05-03 23:39 25.93757 32.51753 34968 ft 524 kts 138°
2026-05-03 23:40 25.89093 32.57984 34957 ft 525 kts 138°
2026-05-03 23:40 25.84418 32.64223 34939 ft 526 kts 138°
2026-05-03 23:41 25.79722 32.70481 34940 ft 526 kts 138°
2026-05-03 23:41 25.75116 32.76641 34941 ft 527 kts 136°
2026-05-03 23:42 25.70915 32.83393 34930 ft 532 kts 131°
2026-05-03 23:42 25.66882 32.90285 34916 ft 532 kts 131°
2026-05-03 23:43 25.62834 32.97138 34951 ft 531 kts 131°
2026-05-03 23:43 25.58760 33.03958 34935 ft 531 kts 131°
2026-05-03 23:44 25.54671 33.10779 34950 ft 530 kts 131°
2026-05-03 23:44 25.50590 33.17582 34935 ft 529 kts 131°
2026-05-03 23:45 25.46554 33.24306 34936 ft 528 kts 131°
2026-05-03 23:45 25.42486 33.31071 34940 ft 528 kts 131°
2026-05-03 23:46 25.38417 33.37829 34940 ft 527 kts 131°
2026-05-03 23:46 25.34363 33.44555 34942 ft 528 kts 131°
2026-05-03 23:47 25.30294 33.51293 34938 ft 528 kts 132°
2026-05-03 23:47 25.26185 33.58075 34924 ft 528 kts 131°
2026-05-03 23:48 25.22081 33.64842 34940 ft 529 kts 131°
2026-05-03 23:48 25.17976 33.71603 34933 ft 530 kts 131°
2026-05-03 23:49 25.13893 33.78321 34940 ft 531 kts 131°
2026-05-03 23:49 25.09768 33.85099 34934 ft 532 kts 131°
2026-05-03 23:50 25.06337 33.90730 34936 ft 532 kts 132°
2026-05-03 23:50 25.01501 33.98654 34932 ft 532 kts 132°
2026-05-03 23:51 24.97365 34.05422 34951 ft 533 kts 132°
2026-05-03 23:51 24.93237 34.12159 34940 ft 533 kts 132°
2026-05-03 23:52 24.89088 34.18934 34946 ft 533 kts 132°
2026-05-03 23:52 24.84938 34.25698 34943 ft 532 kts 132°
2026-05-03 23:53 24.80790 34.32445 34937 ft 530 kts 132°
2026-05-03 23:53 24.76663 34.39151 34952 ft 529 kts 132°
2026-05-03 23:54 24.72553 34.45815 34953 ft 529 kts 132°
2026-05-03 23:54 24.68429 34.52498 34944 ft 528 kts 132°
2026-05-03 23:55 24.64343 34.59109 34949 ft 526 kts 132°
2026-05-03 23:55 24.60224 34.65764 34951 ft 526 kts 132°
2026-05-03 23:56 24.56102 34.72411 34948 ft 526 kts 132°
2026-05-03 23:56 24.51978 34.79055 34941 ft 526 kts 132°
2026-05-03 23:57 24.47847 34.85701 34935 ft 527 kts 132°
2026-05-03 23:57 24.43737 34.92307 34965 ft 529 kts 132°
2026-05-03 23:58 24.39570 34.98992 34936 ft 530 kts 132°
2026-05-03 23:58 24.35414 35.05652 34917 ft 528 kts 132°
2026-05-03 23:59 24.31258 35.12306 34920 ft 528 kts 132°
2026-05-03 23:59 24.27111 35.18934 34920 ft 527 kts 132°
2026-05-04 00:00 24.22961 35.25558 34895 ft 526 kts 132°
2026-05-04 00:00 24.18919 35.32000 34908 ft 525 kts 132°
2026-05-04 00:01 24.14841 35.38492 34907 ft 525 kts 132°
2026-05-04 00:01 24.10721 35.45041 34901 ft 525 kts 132°
2026-05-04 00:02 24.06576 35.51623 34887 ft 525 kts 132°
2026-05-04 00:02 24.02431 35.58198 34888 ft 525 kts 132°
2026-05-04 00:03 23.98280 35.64773 34895 ft 525 kts 132°
2026-05-04 00:03 23.94118 35.71353 34891 ft 525 kts 132°
2026-05-04 00:04 23.90660 35.76813 34886 ft 525 kts 131°
2026-05-04 00:04 23.85834 35.84430 34892 ft 524 kts 131°
2026-05-04 00:05 23.81676 35.90983 34889 ft 524 kts 131°
2026-05-04 00:05 23.78282 35.96327 34890 ft 524 kts 131°
2026-05-04 00:06 23.74135 36.02847 34885 ft 523 kts 131°
2026-05-04 00:06 23.69985 36.09365 34886 ft 523 kts 132°
2026-05-04 00:07 23.65826 36.15887 34882 ft 523 kts 132°
2026-05-04 00:07 23.61688 36.22368 34881 ft 523 kts 132°
2026-05-04 00:08 23.57522 36.28885 34876 ft 523 kts 131°
2026-05-04 00:08 23.53361 36.35385 34874 ft 523 kts 131°
2026-05-04 00:09 23.49198 36.41881 34876 ft 523 kts 131°
2026-05-04 00:09 23.45030 36.48375 34867 ft 523 kts 131°
2026-05-04 00:10 23.40883 36.54830 34871 ft 523 kts 131°
2026-05-04 00:10 23.36715 36.61308 34876 ft 523 kts 131°
2026-05-04 00:11 23.32534 36.67798 34869 ft 523 kts 131°
2026-05-04 00:11 23.28348 36.74289 34868 ft 524 kts 131°
2026-05-04 00:12 23.24160 36.80775 34868 ft 523 kts 131°
2026-05-04 00:12 23.19973 36.87250 34868 ft 523 kts 131°
2026-05-04 00:13 23.15815 36.93674 34868 ft 523 kts 131°
2026-05-04 00:13 23.11624 37.00139 34857 ft 522 kts 131°
2026-05-04 00:14 23.07437 37.06592 34861 ft 522 kts 131°
2026-05-04 00:14 23.03250 37.13037 34867 ft 522 kts 131°
2026-05-04 00:15 22.99071 37.19432 34864 ft 522 kts 131°
2026-05-04 00:15 22.94842 37.25856 34862 ft 522 kts 131°
2026-05-04 00:16 22.90621 37.32266 34869 ft 522 kts 131°
2026-05-04 00:16 22.86404 37.38668 34872 ft 522 kts 131°
2026-05-04 00:17 22.82182 37.45074 34871 ft 522 kts 131°
2026-05-04 00:17 22.77984 37.51436 34865 ft 522 kts 131°
2026-05-04 00:18 22.73755 37.57842 34875 ft 522 kts 131°
2026-05-04 00:18 22.69545 37.64259 34870 ft 522 kts 131°
2026-05-04 00:19 22.65339 37.70679 34872 ft 522 kts 131°
2026-05-04 00:19 22.61206 37.76985 34874 ft 521 kts 131°
2026-05-04 00:20 22.57072 37.83284 34870 ft 521 kts 131°
2026-05-04 00:20 22.52870 37.89678 34871 ft 521 kts 131°
2026-05-04 00:21 22.48671 37.96059 34868 ft 521 kts 131°
2026-05-04 00:21 22.44530 38.02344 34869 ft 520 kts 131°
2026-05-04 00:22 22.40323 38.08722 34868 ft 520 kts 131°
2026-05-04 00:22 22.36118 38.15090 34866 ft 520 kts 131°
2026-05-04 00:23 22.31931 38.21426 34858 ft 520 kts 131°
2026-05-04 00:23 22.27746 38.27746 34861 ft 520 kts 131°
2026-05-04 00:24 22.23529 38.34092 34857 ft 520 kts 131°
2026-05-04 00:24 22.19301 38.40448 34858 ft 520 kts 131°
2026-05-04 00:25 22.15075 38.46797 34843 ft 520 kts 131°
2026-05-04 00:25 22.10851 38.53138 34849 ft 520 kts 131°
2026-05-04 00:26 22.06651 38.59434 34849 ft 520 kts 131°
2026-05-04 00:26 22.02427 38.65760 34848 ft 520 kts 131°
2026-05-04 00:27 21.98198 38.72085 34848 ft 519 kts 131°
2026-05-04 00:27 21.93971 38.78401 34841 ft 519 kts 131°
2026-05-04 00:28 21.89736 38.84720 34838 ft 519 kts 131°
2026-05-04 00:28 21.85535 38.90983 34835 ft 519 kts 131°
2026-05-04 00:29 21.81323 38.97254 34836 ft 519 kts 131°
2026-05-04 00:29 21.77189 39.03404 34831 ft 519 kts 131°
2026-05-04 00:30 21.72587 39.09257 34828 ft 501 kts 150°
2026-05-04 00:30 21.69593 39.11043 34838 ft 487 kts 165°
2026-05-04 00:30 21.66372 39.12046 34835 ft 478 kts 176°
2026-05-04 00:31 21.63088 39.12300 34819 ft 468 kts 187°
2026-05-04 00:31 21.59835 39.12182 34848 ft 468 kts 188°
2026-05-04 00:31 21.53287 39.11906 34841 ft 473 kts 187°
2026-05-04 00:32 21.46685 39.11682 34833 ft 476 kts 187°
2026-05-04 00:32 21.40104 39.11508 34828 ft 478 kts 186°
2026-05-04 00:33 21.30260 39.11271 34849 ft 477 kts 186°
2026-05-04 00:34 21.23630 39.11109 34847 ft 475 kts 186°
2026-05-04 00:34 21.17020 39.10944 34841 ft 474 kts 186°
2026-05-04 00:35 21.10439 39.10780 34848 ft 473 kts 186°
2026-05-04 00:35 21.03889 39.10617 34853 ft 473 kts 186°
2026-05-04 00:36 20.97315 39.10454 34853 ft 473 kts 186°
2026-05-04 00:36 20.90800 39.10292 34852 ft 474 kts 186°
2026-05-04 00:37 20.84197 39.10129 34858 ft 475 kts 186°
2026-05-04 00:37 20.77573 39.09965 34859 ft 476 kts 186°
2026-05-04 00:38 20.70942 39.09801 34857 ft 477 kts 186°
2026-05-04 00:38 20.64333 39.09634 34847 ft 478 kts 186°
2026-05-04 00:39 20.57678 39.09464 34854 ft 478 kts 186°
2026-05-04 00:39 20.51026 39.09294 34854 ft 478 kts 186°
2026-05-04 00:40 20.44373 39.09124 34857 ft 478 kts 186°
2026-05-04 00:40 20.37716 39.08955 34848 ft 478 kts 186°
2026-05-04 00:41 20.31072 39.08786 34856 ft 478 kts 186°
2026-05-04 00:41 20.24429 39.08618 34856 ft 477 kts 186°
2026-05-04 00:42 20.17827 39.08450 34856 ft 477 kts 186°
2026-05-04 00:42 20.11164 39.08281 34852 ft 477 kts 185°
2026-05-04 00:43 20.04525 39.08113 34855 ft 477 kts 185°
2026-05-04 00:43 19.97873 39.07945 34855 ft 477 kts 185°
2026-05-04 00:44 19.91277 39.07778 34858 ft 477 kts 185°
2026-05-04 00:44 19.84760 39.07614 34853 ft 477 kts 185°
2026-05-04 00:45 19.78109 39.07446 34856 ft 477 kts 185°
2026-05-04 00:45 19.71471 39.07279 34854 ft 477 kts 185°
2026-05-04 00:46 19.64817 39.07111 34854 ft 477 kts 185°
2026-05-04 00:46 19.58168 39.06943 34851 ft 477 kts 185°
2026-05-04 00:47 19.51576 39.06778 34854 ft 477 kts 185°
2026-05-04 00:47 19.44925 39.06611 34854 ft 477 kts 185°
2026-05-04 00:48 19.38276 39.06444 34848 ft 477 kts 185°
2026-05-04 00:48 19.31645 39.06277 34853 ft 477 kts 185°
2026-05-04 00:49 19.25008 39.06111 34857 ft 476 kts 185°
2026-05-04 00:49 19.18380 39.05945 34855 ft 476 kts 185°
2026-05-04 00:50 19.11794 39.05776 34855 ft 476 kts 185°
2026-05-04 00:50 19.05182 39.05449 34856 ft 475 kts 187°
2026-05-04 00:51 18.98590 39.05045 34853 ft 475 kts 187°
2026-05-04 00:51 18.91984 39.04656 34856 ft 475 kts 187°
2026-05-04 00:52 18.85377 39.04285 34852 ft 475 kts 186°
2026-05-04 00:52 18.78781 39.03921 34854 ft 475 kts 186°
2026-05-04 00:53 18.72219 39.03559 34850 ft 475 kts 186°
2026-05-04 00:53 18.65607 39.03193 34853 ft 475 kts 186°
2026-05-04 00:54 18.58987 39.02827 34850 ft 475 kts 186°
2026-05-04 00:54 18.52424 39.02464 34855 ft 475 kts 186°
2026-05-04 00:55 18.45815 39.02099 34862 ft 476 kts 186°
2026-05-04 00:55 18.40308 39.01795 34846 ft 476 kts 186°
2026-05-04 00:56 18.33697 39.01431 34840 ft 476 kts 186°
2026-05-04 00:56 18.27075 39.01066 34854 ft 476 kts 186°
2026-05-04 00:57 18.20455 39.00701 34845 ft 476 kts 186°
2026-05-04 00:57 18.13821 39.00358 34838 ft 477 kts 185°
2026-05-04 00:58 18.07174 39.00120 34844 ft 477 kts 185°
2026-05-04 00:58 18.00576 38.99900 34848 ft 477 kts 185°
2026-05-04 00:59 17.93923 38.99666 34837 ft 477 kts 185°
2026-05-04 00:59 17.87284 38.99424 34842 ft 477 kts 185°
2026-05-04 01:00 17.80648 38.99181 34835 ft 477 kts 185°
2026-05-04 01:00 17.74007 38.98938 34838 ft 477 kts 185°
2026-05-04 01:01 17.67364 38.98696 34847 ft 477 kts 185°
2026-05-04 01:01 17.60759 38.98456 34844 ft 478 kts 185°
2026-05-04 01:02 17.54111 38.98214 34840 ft 478 kts 185°
2026-05-04 01:02 17.47452 38.97973 34838 ft 479 kts 185°
2026-05-04 01:03 17.40785 38.97731 34843 ft 479 kts 185°
2026-05-04 01:03 17.34109 38.97488 34843 ft 480 kts 185°
2026-05-04 01:04 17.27436 38.97246 34849 ft 480 kts 185°
2026-05-04 01:04 17.20741 38.97003 34846 ft 481 kts 185°
2026-05-04 01:05 17.14106 38.96763 34848 ft 481 kts 185°
2026-05-04 01:05 17.07409 38.96521 34848 ft 481 kts 185°
2026-05-04 01:06 17.00710 38.96278 34848 ft 481 kts 185°
2026-05-04 01:06 16.94013 38.96036 34849 ft 481 kts 185°
2026-05-04 01:07 16.87305 38.95794 34849 ft 481 kts 185°
2026-05-04 01:07 16.80653 38.95554 34852 ft 481 kts 185°
2026-05-04 01:08 16.73970 38.95313 34851 ft 481 kts 185°
2026-05-04 01:08 16.67382 38.95075 34856 ft 481 kts 184°
2026-05-04 01:09 16.60845 38.94839 34862 ft 481 kts 184°
2026-05-04 01:09 16.54156 38.94599 34861 ft 481 kts 184°
2026-05-04 01:10 16.47462 38.94358 34864 ft 481 kts 184°
2026-05-04 01:10 16.40797 38.94118 34874 ft 482 kts 184°
2026-05-04 01:11 16.34089 38.93877 34871 ft 482 kts 184°
2026-05-04 01:11 16.27382 38.93636 34896 ft 482 kts 184°
2026-05-04 01:12 16.20673 38.93396 34895 ft 483 kts 184°
2026-05-04 01:12 16.13955 38.93155 34901 ft 483 kts 184°
2026-05-04 01:13 16.07225 38.92913 34921 ft 483 kts 184°
2026-05-04 01:13 16.00542 38.92674 34918 ft 484 kts 184°
2026-05-04 01:14 15.93811 38.92433 34924 ft 484 kts 184°
2026-05-04 01:14 15.87079 38.92192 34926 ft 484 kts 184°
2026-05-04 01:15 15.80339 38.91951 34944 ft 484 kts 184°
2026-05-04 01:15 15.73597 38.91711 34957 ft 484 kts 184°
2026-05-04 01:16 15.66870 38.91471 34961 ft 483 kts 184°
2026-05-04 01:16 15.60312 38.91237 34977 ft 484 kts 184°
2026-05-04 01:17 15.53750 38.91003 34988 ft 483 kts 183°
2026-05-04 01:17 15.47011 38.90763 34994 ft 484 kts 184°
2026-05-04 01:18 15.40271 38.90522 35016 ft 485 kts 184°
2026-05-04 01:18 15.33554 38.90283 35011 ft 486 kts 184°
2026-05-04 01:19 15.27005 38.90058 35038 ft 486 kts 182°
2026-05-04 01:19 15.20233 38.90021 35051 ft 487 kts 181°
2026-05-04 01:20 15.13442 38.90059 35046 ft 487 kts 181°
2026-05-04 01:20 15.06658 38.90074 35048 ft 487 kts 181°
2026-05-04 01:21 14.99989 38.90068 35049 ft 487 kts 181°
2026-05-04 01:21 14.93387 38.90057 35056 ft 488 kts 181°
2026-05-04 01:22 14.86623 38.90047 35056 ft 488 kts 181°
2026-05-04 01:22 14.79832 38.90038 35051 ft 488 kts 181°
2026-05-04 01:23 14.73014 38.90029 35050 ft 489 kts 181°
2026-05-04 01:23 14.66214 38.90021 35052 ft 489 kts 181°
2026-05-04 01:24 14.59443 38.90012 35046 ft 489 kts 181°
2026-05-04 01:24 14.52646 38.90263 35036 ft 490 kts 170°
2026-05-04 01:25 14.46258 38.92687 35055 ft 493 kts 150°
2026-05-04 01:25 14.40658 38.96807 35057 ft 495 kts 144°
2026-05-04 01:26 14.35127 39.01059 35064 ft 497 kts 144°
2026-05-04 01:26 14.29553 39.05279 35068 ft 498 kts 145°
2026-05-04 01:27 14.23938 39.09479 35064 ft 498 kts 145°
2026-05-04 01:27 14.18349 39.13643 35075 ft 498 kts 145°
2026-05-04 01:28 14.12737 39.17824 35073 ft 498 kts 145°
2026-05-04 01:28 14.07129 39.22001 35078 ft 497 kts 145°
2026-05-04 01:29 14.01528 39.26172 35080 ft 496 kts 145°
2026-05-04 01:29 13.95937 39.30332 35082 ft 495 kts 145°
2026-05-04 01:30 13.90429 39.34429 35092 ft 495 kts 145°
2026-05-04 01:30 13.84837 39.38583 35090 ft 495 kts 145°
2026-05-04 01:31 13.79238 39.42744 35090 ft 495 kts 145°
2026-05-04 01:31 13.73682 39.46869 35086 ft 496 kts 145°
2026-05-04 01:32 13.68086 39.51020 35083 ft 496 kts 145°
2026-05-04 01:32 13.62625 39.55069 35081 ft 496 kts 145°
2026-05-04 01:33 13.57014 39.59228 35073 ft 496 kts 145°
2026-05-04 01:33 13.51412 39.63376 35068 ft 496 kts 145°
2026-05-04 01:34 13.45806 39.67526 35046 ft 496 kts 145°
2026-05-04 01:34 13.40196 39.71676 35046 ft 496 kts 145°
2026-05-04 01:35 13.34620 39.75797 35044 ft 495 kts 145°
2026-05-04 01:35 13.29044 39.79918 35018 ft 495 kts 145°
2026-05-04 01:36 13.23456 39.84045 35020 ft 495 kts 145°
2026-05-04 01:36 13.17899 39.88146 34996 ft 495 kts 145°
2026-05-04 01:37 13.12298 39.92277 34998 ft 495 kts 145°
2026-05-04 01:37 13.06695 39.96407 34960 ft 495 kts 145°
2026-05-04 01:38 13.01091 40.00536 34965 ft 495 kts 145°
2026-05-04 01:38 12.95532 40.04628 34942 ft 495 kts 145°
2026-05-04 01:39 12.89948 40.08738 34944 ft 495 kts 145°
2026-05-04 01:39 12.84349 40.12857 34927 ft 495 kts 145°
2026-05-04 01:40 12.78753 40.16971 34927 ft 495 kts 145°
2026-05-04 01:40 12.73159 40.21081 34911 ft 495 kts 145°
2026-05-04 01:41 12.67594 40.25167 34909 ft 495 kts 145°
2026-05-04 01:41 12.61996 40.29276 34914 ft 495 kts 145°
2026-05-04 01:42 12.56428 40.33361 34898 ft 495 kts 145°
2026-05-04 01:42 12.50815 40.37477 34899 ft 495 kts 145°
2026-05-04 01:43 12.45163 40.41506 34895 ft 495 kts 149°
2026-05-04 01:43 12.40105 40.44241 34897 ft 494 kts 154°
2026-05-04 01:44 12.32930 40.47853 34902 ft 494 kts 154°
2026-05-04 01:44 12.27767 40.50471 34901 ft 494 kts 154°
2026-05-04 01:45 12.21651 40.53601 34905 ft 494 kts 154°
2026-05-04 01:45 12.12450 40.58328 34899 ft 493 kts 154°
2026-05-04 01:46 12.06316 40.61477 34903 ft 493 kts 154°
2026-05-04 01:46 12.00189 40.64619 34904 ft 493 kts 154°
2026-05-04 01:47 11.94043 40.67770 34896 ft 493 kts 154°
2026-05-04 01:47 11.87912 40.70910 34894 ft 493 kts 154°
2026-05-04 01:48 11.81820 40.74029 34894 ft 493 kts 154°
2026-05-04 01:48 11.75682 40.77171 34892 ft 493 kts 154°
2026-05-04 01:49 11.69551 40.80307 34890 ft 493 kts 154°
2026-05-04 01:49 11.63409 40.83445 34892 ft 493 kts 154°
2026-05-04 01:50 11.57308 40.86563 34891 ft 494 kts 153°
2026-05-04 01:50 11.51154 40.89707 34891 ft 494 kts 154°
2026-05-04 01:51 11.44995 40.92851 34890 ft 495 kts 153°
2026-05-04 01:51 11.38832 40.95995 34890 ft 495 kts 153°
2026-05-04 01:52 11.32664 40.99141 34890 ft 495 kts 153°
2026-05-04 01:52 11.26499 41.02283 34890 ft 495 kts 153°
2026-05-04 01:53 11.20371 41.05406 34892 ft 495 kts 153°
2026-05-04 01:53 11.14209 41.08544 34892 ft 495 kts 153°
2026-05-04 01:54 11.08038 41.11684 34892 ft 495 kts 153°
2026-05-04 01:54 11.01872 41.14822 34894 ft 495 kts 153°
2026-05-04 01:55 10.95757 41.17931 34893 ft 495 kts 153°
2026-05-04 01:55 10.89588 41.21067 34893 ft 495 kts 153°
2026-05-04 01:56 10.83415 41.24203 34898 ft 496 kts 153°
2026-05-04 01:56 10.77240 41.27339 34901 ft 496 kts 153°
2026-05-04 01:57 10.71063 41.30474 34902 ft 496 kts 153°
2026-05-04 01:57 10.64881 41.33611 34906 ft 496 kts 153°
2026-05-04 01:58 10.58732 41.36729 34909 ft 496 kts 153°
2026-05-04 01:58 10.52591 41.39841 34908 ft 496 kts 153°
2026-05-04 01:59 10.46413 41.42971 34912 ft 495 kts 153°
2026-05-04 01:59 10.40251 41.46092 34913 ft 494 kts 153°
2026-05-04 02:00 10.34189 41.49161 34915 ft 494 kts 153°
2026-05-04 02:00 10.28078 41.52253 34921 ft 493 kts 153°
2026-05-04 02:01 10.21922 41.55367 34919 ft 493 kts 153°
2026-05-04 02:01 10.15778 41.58473 34925 ft 493 kts 153°
2026-05-04 02:02 10.09629 41.61581 34925 ft 493 kts 153°
2026-05-04 02:02 10.03476 41.64689 34932 ft 493 kts 153°
2026-05-04 02:03 9.97370 41.67772 34929 ft 494 kts 153°
2026-05-04 02:03 9.91222 41.70875 34940 ft 494 kts 153°
2026-05-04 02:04 9.85065 41.73981 34941 ft 494 kts 153°
2026-05-04 02:04 9.78901 41.77090 34962 ft 494 kts 153°
2026-05-04 02:05 9.72742 41.80195 34967 ft 494 kts 153°
2026-05-04 02:05 9.66576 41.83302 34992 ft 495 kts 153°
2026-05-04 02:06 9.60370 41.86346 34999 ft 495 kts 155°
2026-05-04 02:06 9.54076 41.89203 35027 ft 495 kts 155°
2026-05-04 02:07 9.47819 41.92024 35029 ft 495 kts 155°
2026-05-04 02:07 9.41537 41.94888 35043 ft 495 kts 155°
2026-05-04 02:08 9.35264 41.97764 35048 ft 494 kts 155°
2026-05-04 02:08 9.28998 42.00640 35065 ft 494 kts 155°
2026-05-04 02:09 9.22740 42.03510 35062 ft 494 kts 155°
2026-05-04 02:09 9.16519 42.06360 35059 ft 494 kts 155°
2026-05-04 02:10 9.10251 42.09230 35053 ft 494 kts 155°
2026-05-04 02:10 9.03993 42.12095 35049 ft 494 kts 155°
2026-05-04 02:11 8.97730 42.14961 35047 ft 494 kts 155°
2026-05-04 02:11 8.91472 42.17823 35042 ft 494 kts 155°
2026-05-04 02:12 8.85219 42.20683 35037 ft 494 kts 155°
2026-05-04 02:12 8.78962 42.23543 35037 ft 493 kts 155°
2026-05-04 02:13 8.72708 42.26400 35026 ft 493 kts 155°
2026-05-04 02:13 8.66452 42.29258 35026 ft 493 kts 155°
2026-05-04 02:14 8.60248 42.32091 35022 ft 492 kts 155°
2026-05-04 02:14 8.54122 42.34887 35026 ft 491 kts 155°
2026-05-04 02:15 8.48083 42.37643 35019 ft 491 kts 155°
2026-05-04 02:15 8.41858 42.40483 35018 ft 490 kts 155°
2026-05-04 02:16 8.35642 42.43327 35011 ft 491 kts 155°
2026-05-04 02:16 8.29414 42.46180 35015 ft 491 kts 155°
2026-05-04 02:17 8.23339 42.48961 35015 ft 492 kts 155°
2026-05-04 02:17 8.17203 42.51767 35014 ft 492 kts 155°
2026-05-04 02:18 8.10956 42.54625 35009 ft 493 kts 155°
2026-05-04 02:18 8.04746 42.57465 35000 ft 493 kts 155°
2026-05-04 02:19 7.98486 42.60327 35000 ft 493 kts 155°
2026-05-04 02:19 7.92228 42.63188 34997 ft 493 kts 155°
2026-05-04 02:20 7.85970 42.66048 34997 ft 493 kts 155°
2026-05-04 02:20 7.79715 42.68905 34995 ft 493 kts 155°
2026-05-04 02:21 7.73468 42.71758 34997 ft 493 kts 155°
2026-05-04 02:21 7.67258 42.74593 34985 ft 493 kts 155°
2026-05-04 02:22 7.61001 42.77449 34986 ft 492 kts 155°
2026-05-04 02:22 7.54755 42.80298 34992 ft 492 kts 155°
2026-05-04 02:23 7.48519 42.83142 34994 ft 492 kts 155°
2026-05-04 02:23 7.42270 42.85991 34989 ft 492 kts 155°
2026-05-04 02:24 7.36074 42.88815 34993 ft 492 kts 155°
2026-05-04 02:24 7.29830 42.91660 34988 ft 492 kts 155°
2026-05-04 02:25 7.23581 42.94507 34985 ft 492 kts 155°
2026-05-04 02:25 7.17332 42.97353 34987 ft 493 kts 155°
2026-05-04 02:26 7.11080 43.00200 34983 ft 493 kts 155°
2026-05-04 02:26 7.04825 43.03047 34977 ft 493 kts 155°
2026-05-04 02:27 6.98605 43.05878 34972 ft 494 kts 155°
2026-05-04 02:27 6.92642 43.08592 34972 ft 494 kts 155°
2026-05-04 02:28 6.86262 43.11503 34971 ft 494 kts 155°
2026-05-04 02:28 6.80035 43.14345 34970 ft 494 kts 155°
2026-05-04 02:29 6.73765 43.17205 34965 ft 494 kts 155°
2026-05-04 02:29 6.67789 43.19930 34963 ft 494 kts 155°
2026-05-04 02:30 6.61520 43.22787 34963 ft 494 kts 155°
2026-05-04 02:30 6.55255 43.25642 34961 ft 493 kts 155°
2026-05-04 02:31 6.50061 43.28008 34954 ft 492 kts 155°
2026-05-04 02:31 6.43814 43.30853 34955 ft 492 kts 155°
2026-05-04 02:32 6.36576 43.34149 34949 ft 491 kts 155°
2026-05-04 02:32 6.31611 43.36409 34950 ft 490 kts 154°
2026-05-04 02:33 6.25404 43.39234 34947 ft 490 kts 154°
2026-05-04 02:33 6.19257 43.42031 34948 ft 490 kts 154°
2026-05-04 02:34 6.13047 43.44856 34944 ft 490 kts 155°
2026-05-04 02:34 6.06813 43.47690 34946 ft 491 kts 155°
2026-05-04 02:35 6.00619 43.50507 34948 ft 492 kts 155°
2026-05-04 02:35 5.94375 43.53345 34952 ft 493 kts 155°
2026-05-04 02:36 5.88112 43.56191 34953 ft 494 kts 155°
2026-05-04 02:36 5.81869 43.59027 34956 ft 494 kts 155°
2026-05-04 02:37 5.75606 43.61872 34957 ft 494 kts 154°
2026-05-04 02:37 5.69355 43.64711 34958 ft 493 kts 155°
2026-05-04 02:38 5.63142 43.67534 34960 ft 493 kts 155°
2026-05-04 02:38 5.56897 43.70379 34961 ft 492 kts 155°
2026-05-04 02:39 5.50650 43.73225 34958 ft 492 kts 154°
2026-05-04 02:39 5.44417 43.76064 34961 ft 491 kts 155°
2026-05-04 02:40 5.38184 43.78901 34957 ft 491 kts 155°
2026-05-04 02:40 5.32002 43.81715 34959 ft 491 kts 155°
2026-05-04 02:41 5.25773 43.84549 34964 ft 491 kts 155°
2026-05-04 02:41 5.19544 43.87383 34965 ft 492 kts 155°
2026-05-04 02:42 5.13372 43.90190 34962 ft 492 kts 155°
2026-05-04 02:42 5.07120 43.93034 34963 ft 493 kts 155°
2026-05-04 02:43 5.00862 43.95879 34968 ft 494 kts 155°
2026-05-04 02:43 4.94633 43.98711 34967 ft 494 kts 155°
2026-05-04 02:44 4.88365 44.01547 34973 ft 494 kts 155°
2026-05-04 02:44 4.82078 44.04345 34972 ft 494 kts 155°
2026-05-04 02:45 4.75896 44.07089 34974 ft 493 kts 155°
2026-05-04 02:45 4.69609 44.09886 34981 ft 493 kts 155°
2026-05-04 02:46 4.63340 44.12679 34981 ft 493 kts 155°
2026-05-04 02:46 4.57150 44.15436 34981 ft 493 kts 155°
2026-05-04 02:47 4.50842 44.18246 34979 ft 493 kts 155°
2026-05-04 02:47 4.44569 44.21039 34981 ft 493 kts 155°
2026-05-04 02:48 4.38309 44.23826 34975 ft 492 kts 155°
2026-05-04 02:48 4.32035 44.26619 34980 ft 492 kts 155°
2026-05-04 02:49 4.25771 44.29406 34982 ft 493 kts 155°
2026-05-04 02:49 4.19608 44.32149 34978 ft 493 kts 155°
2026-05-04 02:50 4.13321 44.34945 34978 ft 493 kts 155°
2026-05-04 02:50 4.07136 44.37697 34982 ft 494 kts 155°
2026-05-04 02:51 4.00811 44.40509 34974 ft 494 kts 155°
2026-05-04 02:51 3.94537 44.43299 34975 ft 493 kts 155°
2026-05-04 02:52 3.88253 44.46093 34972 ft 493 kts 155°
2026-05-04 02:52 3.82021 44.48863 34973 ft 493 kts 155°
2026-05-04 02:53 3.75732 44.51657 34972 ft 492 kts 155°
2026-05-04 02:53 3.69478 44.54436 34966 ft 491 kts 155°
2026-05-04 02:54 3.63240 44.57208 34969 ft 490 kts 155°
2026-05-04 02:54 3.57005 44.59978 34969 ft 489 kts 155°
2026-05-04 02:55 3.47706 44.64108 34971 ft 489 kts 155°
2026-05-04 02:56 3.41476 44.66874 34970 ft 489 kts 155°
2026-05-04 02:56 3.35245 44.69641 34964 ft 490 kts 155°
2026-05-04 02:57 3.29012 44.72408 34964 ft 490 kts 155°
2026-05-04 02:57 3.22773 44.75176 34967 ft 490 kts 154°
2026-05-04 02:58 3.16532 44.77947 34958 ft 490 kts 154°
2026-05-04 02:58 3.10294 44.80715 34955 ft 489 kts 154°
2026-05-04 02:59 3.04124 44.83453 34954 ft 489 kts 154°
2026-05-04 02:59 2.97907 44.86211 34950 ft 488 kts 154°
2026-05-04 03:00 2.91700 44.88964 34951 ft 487 kts 154°
2026-05-04 03:00 2.85507 44.91711 34954 ft 487 kts 154°
2026-05-04 03:01 2.79317 44.94456 34950 ft 486 kts 154°
2026-05-04 03:01 2.73145 44.97193 34947 ft 486 kts 154°
2026-05-04 03:02 2.67003 44.99916 34952 ft 486 kts 154°
2026-05-04 03:02 2.60817 45.02659 34948 ft 486 kts 154°
2026-05-04 03:03 2.54637 45.05398 34949 ft 486 kts 154°
2026-05-04 03:03 2.48453 45.08140 34948 ft 486 kts 154°
2026-05-04 03:04 2.42268 45.10880 34948 ft 486 kts 154°
2026-05-04 03:04 2.36079 45.13623 34945 ft 486 kts 154°
2026-05-04 03:05 2.29894 45.16364 34943 ft 486 kts 154°
2026-05-04 03:05 2.23700 45.19109 34945 ft 486 kts 154°
2026-05-04 03:06 2.17508 45.21852 34943 ft 486 kts 154°
2026-05-04 03:06 2.11323 45.24593 34940 ft 486 kts 154°
2026-05-04 03:07 2.05171 45.27318 34943 ft 486 kts 154°
2026-05-04 03:07 1.99023 45.30036 34942 ft 486 kts 154°
2026-05-04 03:08 1.92748 45.32740 34936 ft 486 kts 154°
2026-05-04 03:08 1.86525 45.35399 34938 ft 486 kts 154°
2026-05-04 03:09 1.80362 45.38041 34931 ft 485 kts 154°
2026-05-04 03:09 1.74110 45.40728 34934 ft 485 kts 154°
2026-05-04 03:10 1.67953 45.43376 34936 ft 485 kts 154°
2026-05-04 03:10 1.61754 45.46041 34934 ft 485 kts 154°
2026-05-04 03:11 1.55545 45.48710 34934 ft 485 kts 154°
2026-05-04 03:11 1.49353 45.51371 34934 ft 485 kts 154°
2026-05-04 03:12 1.43173 45.54028 34932 ft 485 kts 154°
2026-05-04 03:12 1.36952 45.56702 34935 ft 485 kts 154°
2026-05-04 03:13 1.30788 45.59351 34933 ft 485 kts 154°
2026-05-04 03:13 1.24583 45.62017 34935 ft 485 kts 154°
2026-05-04 03:14 1.18513 45.64626 34934 ft 485 kts 154°
2026-05-04 03:14 1.12220 45.67330 34935 ft 485 kts 154°
2026-05-04 03:15 1.06062 45.69975 34936 ft 485 kts 154°
2026-05-04 03:15 0.99858 45.72641 34936 ft 485 kts 154°
2026-05-04 03:16 0.93654 45.75306 34937 ft 485 kts 154°
2026-05-04 03:16 0.87442 45.77976 35006 ft 488 kts 154°
2026-05-04 03:16 0.84327 45.79314 35312 ft 486 kts 154°
2026-05-04 03:17 0.81225 45.80646 35721 ft 483 kts 154°
2026-05-04 03:17 0.78154 45.81965 36169 ft 478 kts 154°
2026-05-04 03:17 0.75104 45.83275 36586 ft 475 kts 154°
2026-05-04 03:17 0.72107 45.84562 36933 ft 473 kts 154°
2026-05-04 03:18 0.69077 45.85865 36927 ft 477 kts 154°
2026-05-04 03:18 0.62983 45.88484 36930 ft 474 kts 154°
2026-05-04 03:19 0.57087 45.91017 36929 ft 471 kts 154°
2026-05-04 03:19 0.51079 45.93618 36939 ft 469 kts 154°
2026-05-04 03:20 0.45111 45.96239 36936 ft 468 kts 154°
2026-05-04 03:20 0.39152 45.98858 36936 ft 468 kts 154°
2026-05-04 03:21 0.33215 46.01462 36941 ft 469 kts 154°
2026-05-04 03:21 0.27230 46.04084 36943 ft 470 kts 154°
2026-05-04 03:22 0.22236 46.06272 36938 ft 471 kts 154°
2026-05-04 03:22 0.16266 46.08888 36937 ft 472 kts 154°
2026-05-04 03:23 0.10235 46.11531 36937 ft 473 kts 154°
2026-05-04 03:23 0.04238 46.14159 36937 ft 473 kts 154°
2026-05-04 03:24 -0.01791 46.16801 36939 ft 473 kts 154°
2026-05-04 03:24 -0.07824 46.19445 36935 ft 473 kts 154°
2026-05-04 03:25 -0.13842 46.22082 36935 ft 472 kts 154°
2026-05-04 03:25 -0.19855 46.24715 36937 ft 471 kts 155°
2026-05-04 03:26 -0.25887 46.27294 36934 ft 471 kts 155°
2026-05-04 03:26 -0.31914 46.29845 36939 ft 470 kts 155°
2026-05-04 03:27 -0.37906 46.32388 36936 ft 470 kts 155°
2026-05-04 03:27 -0.43929 46.34951 36936 ft 470 kts 155°
2026-05-04 03:28 -0.49943 46.37513 36936 ft 470 kts 155°
2026-05-04 03:28 -0.55961 46.40076 36937 ft 470 kts 155°
2026-05-04 03:29 -0.61983 46.42640 36940 ft 470 kts 155°
2026-05-04 03:29 -0.68002 46.45203 36939 ft 470 kts 155°
2026-05-04 03:30 -0.74003 46.47759 36939 ft 471 kts 155°
2026-05-04 03:30 -0.80027 46.50324 36944 ft 471 kts 155°
2026-05-04 03:31 -0.86051 46.52889 36943 ft 470 kts 155°
2026-05-04 03:31 -0.92075 46.55455 36941 ft 470 kts 155°
2026-05-04 03:32 -0.98099 46.58021 36940 ft 470 kts 155°
2026-05-04 03:32 -1.04114 46.60583 36943 ft 470 kts 155°
2026-05-04 03:33 -1.10121 46.63143 36940 ft 469 kts 155°
2026-05-04 03:33 -1.16098 46.65689 36942 ft 469 kts 155°
2026-05-04 03:34 -1.22106 46.68251 36942 ft 469 kts 155°
2026-05-04 03:34 -1.28113 46.70814 36948 ft 469 kts 155°
2026-05-04 03:35 -1.34114 46.73376 36948 ft 469 kts 155°
2026-05-04 03:35 -1.40123 46.75940 36949 ft 469 kts 155°
2026-05-04 03:36 -1.46119 46.78499 36947 ft 469 kts 155°
2026-05-04 03:36 -1.52073 46.81040 36949 ft 469 kts 155°
2026-05-04 03:37 -1.58077 46.83603 36949 ft 469 kts 155°
2026-05-04 03:37 -1.64079 46.86165 36948 ft 469 kts 155°
2026-05-04 03:38 -1.70070 46.88722 36951 ft 469 kts 155°
2026-05-04 03:38 -1.76073 46.91285 36951 ft 469 kts 155°
2026-05-04 03:39 -1.82070 46.93845 36951 ft 469 kts 155°
2026-05-04 03:39 -1.88030 46.96390 36951 ft 468 kts 155°
2026-05-04 03:40 -1.94028 46.98951 36950 ft 469 kts 155°
2026-05-04 03:40 -2.00027 47.01513 36954 ft 469 kts 155°
2026-05-04 03:41 -2.06027 47.04075 36955 ft 469 kts 155°
2026-05-04 03:41 -2.12025 47.06637 36953 ft 469 kts 155°
2026-05-04 03:42 -2.18036 47.09205 36951 ft 469 kts 155°
2026-05-04 03:42 -2.24046 47.11772 36955 ft 469 kts 155°
2026-05-04 03:43 -2.30010 47.14321 36951 ft 470 kts 155°
2026-05-04 03:43 -2.36043 47.16898 36953 ft 471 kts 155°
2026-05-04 03:44 -2.42071 47.19474 36949 ft 472 kts 155°
2026-05-04 03:44 -2.48119 47.22059 36951 ft 472 kts 155°
2026-05-04 03:45 -2.54168 47.24644 36956 ft 473 kts 155°
2026-05-04 03:45 -2.60214 47.27228 36956 ft 473 kts 155°
2026-05-04 03:46 -2.66260 47.29813 36952 ft 473 kts 155°
2026-05-04 03:46 -2.72321 47.32404 36950 ft 472 kts 155°
2026-05-04 03:47 -2.78319 47.34969 36960 ft 472 kts 155°
2026-05-04 03:47 -2.84356 47.37551 36953 ft 472 kts 155°
2026-05-04 03:48 -2.90410 47.40140 36958 ft 472 kts 155°
2026-05-04 03:48 -2.96448 47.42723 36954 ft 472 kts 155°
2026-05-04 03:49 -3.02487 47.45307 36958 ft 472 kts 155°
2026-05-04 03:49 -3.08535 47.47894 36958 ft 472 kts 155°
2026-05-04 03:50 -3.14545 47.50465 36955 ft 472 kts 155°
2026-05-04 03:50 -3.20589 47.53053 36959 ft 472 kts 155°
2026-05-04 03:51 -3.26642 47.55645 36952 ft 472 kts 155°
2026-05-04 03:51 -3.32544 47.58172 36957 ft 472 kts 155°
2026-05-04 03:52 -3.38597 47.60765 36951 ft 473 kts 155°
2026-05-04 03:52 -3.44605 47.63339 36955 ft 472 kts 155°
2026-05-04 03:53 -3.50647 47.65927 36957 ft 472 kts 155°
2026-05-04 03:53 -3.56702 47.68521 36956 ft 472 kts 155°
2026-05-04 03:54 -3.62736 47.71107 36957 ft 472 kts 155°
2026-05-04 03:54 -3.68782 47.73698 36956 ft 472 kts 155°
2026-05-04 03:55 -3.74796 47.76277 36955 ft 473 kts 155°
2026-05-04 03:55 -3.80842 47.78869 36954 ft 473 kts 155°
2026-05-04 03:56 -3.86860 47.81449 36958 ft 473 kts 155°
2026-05-04 03:56 -3.92916 47.84047 36957 ft 473 kts 155°
2026-05-04 03:57 -3.98973 47.86645 36953 ft 473 kts 155°
2026-05-04 03:57 -4.05031 47.89244 36961 ft 473 kts 155°
2026-05-04 03:58 -4.14123 47.93146 36957 ft 474 kts 155°
2026-05-04 03:58 -4.20188 47.95750 36954 ft 474 kts 155°
2026-05-04 03:59 -4.26217 47.98334 36956 ft 474 kts 155°
2026-05-04 03:59 -4.32293 48.00936 36960 ft 475 kts 155°
2026-05-04 04:00 -4.38364 48.03536 36963 ft 475 kts 155°
2026-05-04 04:00 -4.44442 48.06141 36961 ft 475 kts 155°
2026-05-04 04:01 -4.50521 48.08748 36958 ft 475 kts 155°
2026-05-04 04:01 -4.56593 48.11352 36954 ft 475 kts 155°
2026-05-04 04:02 -4.62674 48.13960 36961 ft 475 kts 155°
2026-05-04 04:02 -4.68754 48.16568 36959 ft 475 kts 155°
2026-05-04 04:03 -4.74810 48.19167 36962 ft 475 kts 155°
2026-05-04 04:03 -4.80900 48.21780 36961 ft 476 kts 155°
2026-05-04 04:04 -4.86986 48.24392 36962 ft 476 kts 155°
2026-05-04 04:04 -4.93079 48.27008 36962 ft 476 kts 155°
2026-05-04 04:05 -4.99124 48.29604 36959 ft 476 kts 155°
2026-05-04 04:05 -5.05214 48.32219 36959 ft 476 kts 155°
2026-05-04 04:06 -5.11306 48.34836 36962 ft 476 kts 155°
2026-05-04 04:06 -5.17383 48.37447 36957 ft 476 kts 155°
2026-05-04 04:07 -5.23486 48.40070 36964 ft 477 kts 155°
2026-05-04 04:07 -5.29591 48.42694 36961 ft 477 kts 155°
2026-05-04 04:08 -5.35698 48.45320 36961 ft 477 kts 155°
2026-05-04 04:08 -5.41812 48.47949 36958 ft 478 kts 155°
2026-05-04 04:09 -5.47924 48.50578 36962 ft 477 kts 155°
2026-05-04 04:09 -5.53992 48.53188 36961 ft 477 kts 155°
2026-05-04 04:10 -5.60100 48.55817 36962 ft 477 kts 155°
2026-05-04 04:10 -5.66202 48.58443 36961 ft 477 kts 155°
2026-05-04 04:11 -5.71273 48.60626 36961 ft 477 kts 155°
2026-05-04 04:11 -5.77381 48.63256 36963 ft 477 kts 155°
2026-05-04 04:12 -5.83498 48.65891 36966 ft 478 kts 155°
2026-05-04 04:12 -5.89614 48.68526 36965 ft 478 kts 155°
2026-05-04 04:13 -5.95698 48.71147 36964 ft 478 kts 155°
2026-05-04 04:13 -6.01821 48.73786 36959 ft 479 kts 155°
2026-05-04 04:14 -6.07903 48.76408 36964 ft 479 kts 155°
2026-05-04 04:14 -6.14027 48.79050 36965 ft 479 kts 155°
2026-05-04 04:15 -6.20160 48.81695 36967 ft 479 kts 155°
2026-05-04 04:15 -6.26287 48.84338 36968 ft 479 kts 154°
2026-05-04 04:16 -6.32425 48.86987 36970 ft 479 kts 154°
2026-05-04 04:16 -6.38554 48.89633 36970 ft 479 kts 154°
2026-05-04 04:17 -6.44688 48.92281 36969 ft 479 kts 154°
2026-05-04 04:17 -6.50773 48.94910 36970 ft 479 kts 154°
2026-05-04 04:18 -6.56902 48.97557 36969 ft 479 kts 154°
2026-05-04 04:18 -6.63021 49.00202 36964 ft 478 kts 155°
2026-05-04 04:19 -6.69147 49.02850 36974 ft 478 kts 155°
2026-05-04 04:19 -6.75116 49.05431 36972 ft 479 kts 155°
2026-05-04 04:20 -6.81230 49.08075 36975 ft 479 kts 155°
2026-05-04 04:20 -6.87349 49.10722 36972 ft 479 kts 155°
2026-05-04 04:21 -6.93478 49.13375 36972 ft 479 kts 155°
2026-05-04 04:21 -6.99441 49.15956 36974 ft 480 kts 155°
2026-05-04 04:22 -7.05506 49.18580 36972 ft 480 kts 155°
2026-05-04 04:22 -7.11604 49.21217 36972 ft 480 kts 155°
2026-05-04 04:23 -7.17755 49.23878 36976 ft 480 kts 155°
2026-05-04 04:23 -7.23903 49.26539 36974 ft 481 kts 154°
2026-05-04 04:24 -7.30049 49.29201 36974 ft 481 kts 154°
2026-05-04 04:24 -7.36188 49.31860 36975 ft 481 kts 155°
2026-05-04 04:25 -7.42339 49.34525 36976 ft 481 kts 154°
2026-05-04 04:25 -7.48487 49.37191 36976 ft 481 kts 154°
2026-05-04 04:26 -7.54602 49.39842 36972 ft 481 kts 154°
2026-05-04 04:26 -7.60751 49.42509 36978 ft 481 kts 154°
2026-05-04 04:27 -7.66914 49.45183 36976 ft 482 kts 154°
2026-05-04 04:27 -7.73086 49.47861 36978 ft 482 kts 154°
2026-05-04 04:28 -7.79254 49.50539 36975 ft 483 kts 154°
2026-05-04 04:28 -7.85427 49.53220 36972 ft 483 kts 154°
2026-05-04 04:29 -7.91526 49.55870 36977 ft 483 kts 154°
2026-05-04 04:29 -7.97710 49.58557 36978 ft 484 kts 154°
2026-05-04 04:30 -8.03895 49.61245 36979 ft 484 kts 154°
2026-05-04 04:30 -8.10091 49.63940 36977 ft 484 kts 154°
2026-05-04 04:31 -8.16267 49.66626 36978 ft 485 kts 154°
2026-05-04 04:31 -8.22459 49.69320 36975 ft 485 kts 154°
2026-05-04 04:32 -8.28654 49.72017 36978 ft 485 kts 154°
2026-05-04 04:32 -8.34840 49.74710 36982 ft 484 kts 154°
2026-05-04 04:33 -8.41033 49.77408 36978 ft 484 kts 154°
2026-05-04 04:33 -8.47227 49.80107 36975 ft 484 kts 154°
2026-05-04 04:34 -8.53391 49.82794 36979 ft 484 kts 154°
2026-05-04 04:34 -8.59582 49.85494 36979 ft 484 kts 154°
2026-05-04 04:35 -8.65773 49.88194 36979 ft 484 kts 154°
2026-05-04 04:35 -8.71959 49.90894 36985 ft 484 kts 154°
2026-05-04 04:36 -8.78154 49.93598 36976 ft 484 kts 154°
2026-05-04 04:36 -8.84300 49.96281 36982 ft 484 kts 154°
2026-05-04 04:37 -8.96666 50.01685 36982 ft 483 kts 154°
2026-05-04 04:38 -9.02840 50.04383 36981 ft 483 kts 154°
2026-05-04 04:38 -9.09016 50.07084 36984 ft 483 kts 154°
2026-05-04 04:39 -9.15150 50.09768 36983 ft 483 kts 154°
2026-05-04 04:39 -9.21321 50.12469 36985 ft 483 kts 154°
2026-05-04 04:40 -9.27505 50.15176 36989 ft 484 kts 154°
2026-05-04 04:40 -9.33691 50.17885 36988 ft 484 kts 154°
2026-05-04 04:41 -9.39877 50.20596 36984 ft 484 kts 154°
2026-05-04 04:41 -9.46023 50.23291 36987 ft 485 kts 154°
2026-05-04 04:42 -9.52226 50.26010 36989 ft 485 kts 154°
2026-05-04 04:42 -9.58432 50.28733 36993 ft 486 kts 155°
2026-05-04 04:43 -9.64644 50.31460 36988 ft 486 kts 154°
2026-05-04 04:43 -9.70849 50.34183 36991 ft 486 kts 154°
2026-05-04 04:44 -9.77065 50.36913 36988 ft 486 kts 154°
2026-05-04 04:44 -9.83093 50.39563 36987 ft 485 kts 154°
2026-05-04 04:45 -9.89294 50.42289 36986 ft 485 kts 154°
2026-05-04 04:47 -10.10877 50.51782 36988 ft 485 kts 155°
2026-05-04 04:47 -10.17038 50.54493 36987 ft 485 kts 154°
2026-05-04 04:48 -10.23230 50.57220 36989 ft 485 kts 154°
2026-05-04 04:49 -10.38631 50.64008 36990 ft 486 kts 154°
2026-05-04 04:49 -10.44756 50.66708 36992 ft 486 kts 155°
2026-05-04 04:50 -10.50965 50.69449 36992 ft 485 kts 155°
2026-05-04 04:50 -10.57083 50.72150 36991 ft 485 kts 155°
2026-05-04 04:51 -10.63026 50.74775 36996 ft 486 kts 155°
2026-05-04 04:51 -10.69224 50.77512 36997 ft 486 kts 155°
2026-05-04 04:52 -10.75395 50.80241 36994 ft 486 kts 155°
2026-05-04 04:52 -10.81598 50.82984 36997 ft 486 kts 155°
2026-05-04 04:53 -10.87817 50.85735 36998 ft 486 kts 155°
2026-05-04 04:53 -10.94032 50.88486 36998 ft 487 kts 155°
2026-05-04 04:54 -11.00217 50.91225 37001 ft 487 kts 156°
2026-05-04 04:54 -11.06436 50.93980 37000 ft 488 kts 155°
2026-05-04 04:55 -11.12666 50.96742 36996 ft 488 kts 155°
2026-05-04 04:55 -11.18899 50.99506 36999 ft 488 kts 156°
2026-05-04 04:56 -11.25130 51.02270 37003 ft 489 kts 156°
2026-05-04 04:56 -11.31370 51.05040 37002 ft 489 kts 156°
2026-05-04 04:57 -11.37608 51.07811 37002 ft 489 kts 156°
2026-05-04 04:57 -11.43859 51.10588 37004 ft 489 kts 156°
2026-05-04 04:58 -11.50066 51.13346 37001 ft 489 kts 156°
2026-05-04 04:58 -11.56316 51.16126 37001 ft 489 kts 156°
2026-05-04 04:59 -11.62561 51.18905 37006 ft 489 kts 156°
2026-05-04 04:59 -11.68796 51.21680 37003 ft 489 kts 156°
2026-05-04 05:00 -11.75040 51.24462 37005 ft 489 kts 156°
2026-05-04 05:01 -11.83335 51.28159 37007 ft 489 kts 156°
2026-05-04 05:01 -11.89573 51.30940 37007 ft 489 kts 156°
2026-05-04 05:02 -11.95778 51.33709 37011 ft 489 kts 156°
2026-05-04 05:02 -12.02014 51.36493 37010 ft 489 kts 156°
2026-05-04 05:03 -12.08258 51.39282 37007 ft 489 kts 156°
2026-05-04 05:04 -12.20742 51.44859 37014 ft 489 kts 156°
2026-05-04 05:04 -12.26951 51.47635 37009 ft 490 kts 156°
2026-05-04 05:06 -12.51938 51.58826 37018 ft 492 kts 157°
2026-05-04 05:07 -12.58200 51.61634 37022 ft 492 kts 156°
2026-05-04 05:07 -12.64474 51.64449 37019 ft 492 kts 156°
2026-05-04 05:09 -12.92620 51.77098 37024 ft 493 kts 157°
2026-05-04 05:10 -12.98911 51.79929 37026 ft 493 kts 157°
2026-05-04 05:10 -13.05076 51.82705 37024 ft 493 kts 157°
2026-05-04 05:11 -13.11370 51.85541 37024 ft 494 kts 158°
2026-05-04 05:11 -13.17632 51.88363 37028 ft 494 kts 157°
2026-05-04 05:12 -13.23919 51.91200 37029 ft 494 kts 157°
2026-05-04 05:12 -13.30174 51.94023 37032 ft 494 kts 159°
2026-05-04 05:13 -13.36466 51.96865 37034 ft 494 kts 158°
2026-05-04 05:13 -13.41797 51.99274 37029 ft 494 kts 158°
2026-05-04 05:14 -13.48098 52.02122 37030 ft 494 kts 158°
2026-05-04 05:14 -13.54397 52.04970 37035 ft 494 kts 158°
2026-05-04 05:15 -13.60694 52.07821 37039 ft 494 kts 159°
2026-05-04 05:15 -13.66985 52.10671 37033 ft 494 kts 159°
2026-05-04 05:16 -13.73280 52.13524 37037 ft 494 kts 158°
2026-05-04 05:16 -13.79526 52.16356 37036 ft 494 kts 158°
2026-05-04 05:17 -13.85817 52.19212 37038 ft 494 kts 158°
2026-05-04 05:17 -13.92100 52.22064 37043 ft 493 kts 159°
2026-05-04 05:18 -13.98395 52.24924 37041 ft 493 kts 158°
2026-05-04 05:18 -14.04646 52.27766 37041 ft 493 kts 159°
2026-05-04 05:19 -14.10936 52.30628 37041 ft 494 kts 158°
2026-05-04 05:19 -14.17146 52.33453 37042 ft 494 kts 158°
2026-05-04 05:20 -14.23445 52.36323 37044 ft 494 kts 159°
2026-05-04 05:20 -14.29746 52.39194 37047 ft 495 kts 159°
2026-05-04 05:21 -14.36053 52.42070 37046 ft 495 kts 158°
2026-05-04 05:21 -14.42307 52.44924 37046 ft 495 kts 158°
2026-05-04 05:22 -14.48613 52.47802 37047 ft 495 kts 159°
2026-05-04 05:22 -14.54903 52.50676 37047 ft 495 kts 158°
2026-05-04 05:23 -14.61211 52.53560 37048 ft 495 kts 159°
2026-05-04 05:23 -14.67507 52.56440 37048 ft 495 kts 159°
2026-05-04 05:24 -14.73809 52.59324 37049 ft 495 kts 158°
2026-05-04 05:24 -14.80068 52.62191 37050 ft 495 kts 159°
2026-05-04 05:25 -14.86372 52.65080 37056 ft 495 kts 159°
2026-05-04 05:25 -14.92673 52.67969 37051 ft 495 kts 158°
2026-05-04 05:26 -14.98974 52.70861 37052 ft 495 kts 158°
2026-05-04 05:26 -15.05265 52.73749 37055 ft 494 kts 159°
2026-05-04 05:28 -15.30269 52.85249 37057 ft 494 kts 159°
2026-05-04 05:29 -15.36516 52.88127 37058 ft 494 kts 159°
2026-05-04 05:29 -15.42801 52.91024 37055 ft 494 kts 159°
2026-05-04 05:31 -15.67887 53.02608 37059 ft 493 kts 159°
2026-05-04 05:32 -15.74115 53.05488 37063 ft 492 kts 159°
2026-05-04 05:33 -15.83508 53.09837 37066 ft 492 kts 159°
2026-05-04 05:33 -15.89768 53.12737 37064 ft 492 kts 159°
2026-05-04 05:34 -15.95983 53.15618 37065 ft 492 kts 159°
2026-05-04 05:34 -16.02224 53.18514 37066 ft 492 kts 159°
2026-05-04 05:35 -16.08485 53.21421 37078 ft 492 kts 159°
2026-05-04 05:35 -16.14736 53.24325 37068 ft 492 kts 159°
2026-05-04 05:36 -16.20991 53.27233 37072 ft 492 kts 159°
2026-05-04 05:36 -16.27247 53.30144 37074 ft 492 kts 159°
2026-05-04 05:37 -16.33458 53.33037 37071 ft 492 kts 159°
2026-05-04 05:37 -16.39717 53.35953 37072 ft 492 kts 159°
2026-05-04 05:38 -16.49093 53.40317 37072 ft 492 kts 159°
2026-05-04 05:38 -16.55357 53.43234 37070 ft 492 kts 159°
2026-05-04 05:39 -16.64740 53.47611 37074 ft 492 kts 159°
2026-05-04 05:40 -16.74085 53.51975 37084 ft 493 kts 159°
2026-05-04 05:40 -16.80355 53.54905 37072 ft 493 kts 159°
2026-05-04 05:41 -16.86608 53.57830 37078 ft 492 kts 159°
2026-05-04 05:41 -16.92766 53.60712 37076 ft 492 kts 159°
2026-05-04 05:42 -16.98869 53.63571 37076 ft 492 kts 159°
2026-05-04 05:42 -17.05122 53.66502 37084 ft 492 kts 159°
2026-05-04 05:43 -17.11329 53.69413 37076 ft 492 kts 159°
2026-05-04 05:45 -17.36265 53.81132 37086 ft 492 kts 159°
2026-05-04 05:47 -17.61171 53.92871 37082 ft 492 kts 159°
2026-05-04 05:47 -17.67428 53.95826 37082 ft 492 kts 159°
2026-05-04 05:48 -17.73629 53.98757 37087 ft 492 kts 159°
2026-05-04 05:48 -17.79836 54.01693 37089 ft 493 kts 159°
2026-05-04 05:49 -17.86096 54.04656 37087 ft 493 kts 159°
2026-05-04 05:49 -17.92349 54.07618 37088 ft 493 kts 159°
2026-05-04 05:51 -18.17312 54.19454 37089 ft 493 kts 159°
2026-05-04 05:52 -18.22519 54.21917 37089 ft 493 kts 159°
2026-05-04 05:52 -18.28819 54.24901 37099 ft 494 kts 159°
2026-05-04 05:54 -18.53831 54.36778 37091 ft 494 kts 159°
2026-05-04 05:55 -18.60070 54.39746 37097 ft 494 kts 160°
2026-05-04 05:55 -18.66387 54.42462 37084 ft 492 kts 163°
2026-05-04 05:56 -18.72816 54.44956 37092 ft 492 kts 163°
2026-05-04 05:56 -18.79241 54.47455 37092 ft 492 kts 163°
2026-05-04 05:57 -18.85651 54.49998 37101 ft 492 kts 163°
2026-05-04 05:57 -18.92060 54.52565 37093 ft 492 kts 163°
2026-05-04 05:58 -18.98472 54.55138 37106 ft 492 kts 163°
2026-05-04 05:58 -19.04882 54.57710 37093 ft 492 kts 163°
2026-05-04 05:59 -19.11247 54.60265 37092 ft 492 kts 163°
2026-05-04 05:59 -19.14457 54.61553 36697 ft 496 kts 163°
2026-05-04 05:59 -19.17694 54.62852 36036 ft 497 kts 163°
2026-05-04 06:00 -19.20932 54.64154 35255 ft 498 kts 164°
2026-05-04 06:00 -19.24182 54.65461 34384 ft 500 kts 164°
2026-05-04 06:00 -19.27451 54.66774 33387 ft 503 kts 163°
2026-05-04 06:00 -19.30728 54.68092 32415 ft 504 kts 163°
2026-05-04 06:01 -19.34005 54.69411 31455 ft 506 kts 163°
2026-05-04 06:01 -19.37299 54.70739 30764 ft 501 kts 163°
2026-05-04 06:03 -19.59322 54.79632 26178 ft 467 kts 162°
2026-05-04 06:03 -19.62345 54.80853 25568 ft 463 kts 161°
2026-05-04 06:05 -19.82857 54.89153 21261 ft 435 kts 160°
2026-05-04 06:05 -19.88431 54.91413 20130 ft 427 kts 160°
2026-05-04 06:05 -19.91203 54.92538 19550 ft 424 kts 160°
2026-05-04 06:06 -19.93950 54.93652 18979 ft 422 kts 160°
2026-05-04 06:06 -19.96689 54.94764 18399 ft 419 kts 160°
2026-05-04 06:06 -19.99404 54.95867 17778 ft 417 kts 160°
2026-05-04 06:06 -20.02105 54.96964 17198 ft 413 kts 160°
2026-05-04 06:07 -20.04785 54.98054 16635 ft 410 kts 160°
2026-05-04 06:07 -20.07438 54.99133 16088 ft 406 kts 160°
2026-05-04 06:07 -20.10070 55.00204 15546 ft 403 kts 160°
2026-05-04 06:07 -20.12652 55.01255 15000 ft 401 kts 161°
2026-05-04 06:08 -20.15254 55.02314 14449 ft 399 kts 161°
2026-05-04 06:08 -20.17852 55.03371 13901 ft 398 kts 161°
2026-05-04 06:08 -20.19071 55.03868 13613 ft 397 kts 161°
2026-05-04 06:11 -20.31677 55.09006 10820 ft 381 kts 160°
2026-05-04 06:11 -20.34144 55.10013 10223 ft 378 kts 160°
2026-05-04 06:13 -20.50110 55.16539 7885 ft 320 kts 160°
2026-05-04 06:14 -20.61860 55.21349 6420 ft 284 kts 159°
2026-05-04 06:14 -20.63669 55.22090 6166 ft 280 kts 159°
2026-05-04 06:15 -20.65476 55.22831 5909 ft 276 kts 159°
2026-05-04 06:15 -20.67255 55.23561 5656 ft 272 kts 159°
2026-05-04 06:15 -20.69013 55.24282 5414 ft 268 kts 159°
2026-05-04 06:15 -20.70747 55.24993 5158 ft 265 kts 159°
2026-05-04 06:16 -20.72457 55.25695 4909 ft 262 kts 158°
2026-05-04 06:16 -20.74148 55.26389 4665 ft 259 kts 158°
2026-05-04 06:16 -20.75819 55.27075 4396 ft 255 kts 158°
2026-05-04 06:16 -20.77470 55.27753 4147 ft 252 kts 158°
2026-05-04 06:17 -20.79046 55.28528 3889 ft 249 kts 150°
2026-05-04 06:17 -20.80552 55.29451 3671 ft 250 kts 149°
2026-05-04 06:17 -20.82059 55.30400 3428 ft 250 kts 146°
2026-05-04 06:17 -20.83208 55.31732 3166 ft 249 kts 116°
2026-05-04 06:18 -20.83770 55.33449 2937 ft 242 kts 106°
2026-05-04 06:18 -20.84211 55.35134 2944 ft 227 kts 106°
2026-05-04 06:18 -20.84651 55.36716 2844 ft 216 kts 106°
2026-05-04 06:20 -20.87699 55.46088 881 ft 146 kts 103°
2026-05-04 06:20 -20.87924 55.47167 716 ft 157 kts 101°
2026-05-04 06:21 -20.88794 55.51431 57 ft 127 kts 102°
2026-05-04 06:21 -20.88945 55.52170 52 ft 77 kts 103°
2026-05-04 06:22 -20.89020 55.52540 51 ft 45 kts 101°
2026-05-04 06:22 -20.89086 55.52866 51 ft 43 kts 102°
2026-05-04 06:25 -20.88998 55.51114 85 ft 14 kts 207°
2026-05-04 06:25 -20.89037 55.51093 85 ft 1 kts 206°
2026-05-04 06:26 -20.89039 55.51092 85 ft 0 kts 206°